Wetterdaten: Montag, 28.01.2019
Datum Zeit Temp. Aussen Temp. o. S. +5cm Feuchte Auss Luftdruck Regen Sonnenschein Regendauer Solar Windben Empfang
28.01.2019 00:00 3,1 C 2,2 C 1,7 C 94 % 987,4 hPa 0,0 l/m 0 min 0 min 0 W/m 32,2 km/h (5 Bft) 93,62 %
28.01.2019 00:02 3,1 C 2,2 C 1,7 C 94 % 987,4 hPa 0,0 l/m 0 min 0 min 0 W/m 16,1 km/h (3 Bft) 95,35 %
28.01.2019 00:04 3,1 C 2,2 C 1,7 C 94 % 987,5 hPa 0,0 l/m 0 min 2 min 0 W/m 19,3 km/h (3 Bft) 95,74 %
28.01.2019 00:07 3,1 C 2,2 C 1,7 C 94 % 987,5 hPa 0,0 l/m 0 min 3 min 0 W/m 25,7 km/h (4 Bft) 94,29 %
28.01.2019 00:08 3,1 C 2,2 C 1,7 C 94 % 987,5 hPa 0,0 l/m 0 min 1 min 0 W/m 9,7 km/h (2 Bft) 100,00 %
28.01.2019 00:10 3,1 C 2,2 C 1,7 C 94 % 987,4 hPa 0,0 l/m 0 min 2 min 0 W/m 19,3 km/h (3 Bft) 95,74 %
28.01.2019 00:12 3,1 C 2,2 C 1,7 C 94 % 987,4 hPa 0,0 l/m 0 min 2 min 0 W/m 12,9 km/h (3 Bft) 97,87 %
28.01.2019 00:14 3,1 C 2,2 C 1,7 C 94 % 987,4 hPa 0,0 l/m 0 min 2 min 0 W/m 29,0 km/h (5 Bft) 97,87 %
28.01.2019 00:16 3,1 C 2,2 C 1,7 C 94 % 987,4 hPa 0,0 l/m 0 min 2 min 0 W/m 19,3 km/h (3 Bft) 97,87 %
28.01.2019 00:18 3,1 C 2,2 C 1,7 C 94 % 987,4 hPa 0,0 l/m 0 min 2 min 0 W/m 22,5 km/h (4 Bft) 97,87 %
28.01.2019 00:20 3,1 C 2,2 C 1,7 C 94 % 987,3 hPa 0,0 l/m 0 min 2 min 0 W/m 19,3 km/h (3 Bft) 97,83 %
28.01.2019 00:22 3,1 C 2,2 C 1,7 C 94 % 987,4 hPa 0,0 l/m 0 min 2 min 0 W/m 29,0 km/h (5 Bft) 97,87 %
28.01.2019 00:24 3,1 C 2,2 C 1,7 C 94 % 987,4 hPa 0,0 l/m 0 min 2 min 0 W/m 22,5 km/h (4 Bft) 97,87 %
28.01.2019 00:26 3,1 C 2,2 C 1,7 C 94 % 987,4 hPa 0,0 l/m 0 min 2 min 0 W/m 16,1 km/h (3 Bft) 97,87 %
28.01.2019 00:28 3,1 C 2,2 C 1,7 C 94 % 987,3 hPa 0,0 l/m 0 min 2 min 0 W/m 32,2 km/h (5 Bft) 97,87 %
28.01.2019 00:30 3,1 C 2,2 C 1,7 C 94 % 987,5 hPa 0,0 l/m 0 min 2 min 0 W/m 25,7 km/h (4 Bft) 97,87 %
28.01.2019 00:32 3,1 C 2,2 C 1,7 C 94 % 987,3 hPa 0,0 l/m 0 min 2 min 0 W/m 16,1 km/h (3 Bft) 97,83 %
28.01.2019 00:34 3,1 C 2,2 C 1,7 C 94 % 987,3 hPa 0,0 l/m 0 min 2 min 0 W/m 25,7 km/h (4 Bft) 97,87 %
28.01.2019 00:36 3,2 C 2,2 C 1,7 C 94 % 987,4 hPa 0,0 l/m 0 min 2 min 0 W/m 22,5 km/h (4 Bft) 97,87 %
28.01.2019 00:38 3,2 C 2,2 C 1,7 C 94 % 987,3 hPa 0,0 l/m 0 min 2 min 0 W/m 35,4 km/h (5 Bft) 97,87 %
28.01.2019 00:40 3,1 C 2,2 C 1,7 C 94 % 987,3 hPa 0,0 l/m 0 min 2 min 0 W/m 19,3 km/h (3 Bft) 97,87 %
28.01.2019 00:42 3,1 C 2,2 C 1,7 C 94 % 987,3 hPa 0,0 l/m 0 min 2 min 0 W/m 25,7 km/h (4 Bft) 97,87 %
28.01.2019 00:44 3,2 C 2,2 C 1,7 C 94 % 987,4 hPa 0,0 l/m 0 min 2 min 0 W/m 22,5 km/h (4 Bft) 97,83 %
28.01.2019 00:46 3,1 C 2,2 C 1,7 C 94 % 987,3 hPa 0,0 l/m 0 min 2 min 0 W/m 22,5 km/h (4 Bft) 95,74 %
28.01.2019 00:48 3,1 C 2,2 C 1,7 C 94 % 987,3 hPa 0,0 l/m 0 min 2 min 0 W/m 19,3 km/h (3 Bft) 97,87 %
28.01.2019 00:50 3,2 C 2,2 C 1,7 C 94 % 987,3 hPa 0,0 l/m 0 min 2 min 0 W/m 19,3 km/h (3 Bft) 97,87 %
28.01.2019 00:52 3,1 C 2,2 C 1,7 C 95 % 987,3 hPa 0,0 l/m 0 min 2 min 0 W/m 35,4 km/h (5 Bft) 95,74 %
28.01.2019 00:54 3,2 C 2,2 C 1,7 C 95 % 987,3 hPa 0,0 l/m 0 min 2 min 0 W/m 25,7 km/h (4 Bft) 100,00 %
28.01.2019 00:56 3,2 C 2,2 C 1,7 C 95 % 987,3 hPa 0,0 l/m 0 min 2 min 0 W/m 25,7 km/h (4 Bft) 100,00 %
28.01.2019 00:58 3,2 C 2,2 C 1,7 C 95 % 987,3 hPa 0,0 l/m 0 min 2 min 0 W/m 32,2 km/h (5 Bft) 100,00 %
28.01.2019 01:00 3,2 C 2,2 C 1,7 C 95 % 987,2 hPa 0,0 l/m 0 min 2 min 0 W/m 19,3 km/h (3 Bft) 100,00 %
28.01.2019 01:02 3,2 C 2,2 C 1,7 C 94 % 987,3 hPa 0,0 l/m 0 min 2 min 0 W/m 41,8 km/h (6 Bft) 97,14 %
28.01.2019 01:04 3,2 C 2,2 C 1,7 C 94 % 987,2 hPa 0,0 l/m 0 min 2 min 0 W/m 25,7 km/h (4 Bft) 100,00 %
28.01.2019 01:06 3,2 C 2,2 C 1,7 C 94 % 987,3 hPa 0,0 l/m 0 min 2 min 0 W/m 19,3 km/h (3 Bft) 100,00 %
28.01.2019 01:08 3,2 C 2,2 C 1,7 C 94 % 987,3 hPa 0,0 l/m 0 min 2 min 0 W/m 12,9 km/h (3 Bft) 100,00 %
28.01.2019 01:10 3,2 C 2,2 C 1,7 C 94 % 987,3 hPa 0,0 l/m 0 min 2 min 0 W/m 22,5 km/h (4 Bft) 100,00 %
28.01.2019 01:12 3,2 C 2,2 C 1,7 C 94 % 987,3 hPa 0,0 l/m 0 min 2 min 0 W/m 25,7 km/h (4 Bft) 95,74 %
28.01.2019 01:14 3,2 C 2,2 C 1,7 C 94 % 987,2 hPa 0,0 l/m 0 min 2 min 0 W/m 16,1 km/h (3 Bft) 100,00 %
28.01.2019 01:16 3,2 C 2,2 C 1,7 C 94 % 987,2 hPa 0,0 l/m 0 min 2 min 0 W/m 29,0 km/h (5 Bft) 100,00 %
28.01.2019 01:18 3,2 C 2,2 C 1,7 C 94 % 987,2 hPa 0,0 l/m 0 min 2 min 0 W/m 32,2 km/h (5 Bft) 97,87 %
28.01.2019 01:20 3,2 C 2,2 C 1,7 C 94 % 987,3 hPa 0,0 l/m 0 min 2 min 0 W/m 22,5 km/h (4 Bft) 95,74 %
28.01.2019 01:22 3,2 C 2,2 C 1,7 C 94 % 987,3 hPa 0,0 l/m 0 min 2 min 0 W/m 12,9 km/h (3 Bft) 97,83 %
28.01.2019 01:24 3,2 C 2,2 C 1,7 C 94 % 987,3 hPa 0,0 l/m 0 min 2 min 0 W/m 22,5 km/h (4 Bft) 97,87 %
28.01.2019 01:26 3,2 C 2,2 C 1,7 C 94 % 987,2 hPa 0,0 l/m 0 min 2 min 0 W/m 16,1 km/h (3 Bft) 97,87 %
28.01.2019 01:28 3,1 C 2,2 C 1,7 C 94 % 987,2 hPa 0,0 l/m 0 min 2 min 0 W/m 19,3 km/h (3 Bft) 100,00 %
28.01.2019 01:30 3,1 C 2,2 C 1,7 C 94 % 987,2 hPa 0,0 l/m 0 min 2 min 0 W/m 19,3 km/h (3 Bft) 95,74 %
28.01.2019 01:32 3,1 C 2,2 C 1,7 C 94 % 987,2 hPa 0,0 l/m 0 min 2 min 0 W/m 29,0 km/h (5 Bft) 97,87 %
28.01.2019 01:34 3,1 C 2,2 C 1,7 C 94 % 987,1 hPa 0,0 l/m 0 min 2 min 0 W/m 32,2 km/h (5 Bft) 97,83 %
28.01.2019 01:36 3,1 C 2,2 C 1,7 C 94 % 987,2 hPa 0,0 l/m 0 min 2 min 0 W/m 12,9 km/h (3 Bft) 96,67 %
28.01.2019 01:38 3,1 C 2,2 C 1,7 C 94 % 987,3 hPa 0,0 l/m 0 min 2 min 0 W/m 22,5 km/h (4 Bft) 100,00 %
28.01.2019 01:40 3,1 C 2,2 C 1,7 C 94 % 987,2 hPa 0,0 l/m 0 min 2 min 0 W/m 38,6 km/h (5 Bft) 97,87 %
28.01.2019 01:42 3,1 C 2,2 C 1,7 C 94 % 987,1 hPa 0,0 l/m 0 min 2 min 0 W/m 19,3 km/h (3 Bft) 95,74 %
28.01.2019 01:44 3,1 C 2,2 C 1,7 C 94 % 987,2 hPa 0,0 l/m 0 min 2 min 0 W/m 35,4 km/h (5 Bft) 97,83 %
28.01.2019 01:46 3,0 C 2,2 C 1,7 C 94 % 987,1 hPa 0,0 l/m 0 min 2 min 0 W/m 32,2 km/h (5 Bft) 97,87 %
28.01.2019 01:48 3,0 C 2,2 C 1,7 C 94 % 987,0 hPa 0,2 l/m 0 min 2 min 0 W/m 25,7 km/h (4 Bft) 97,87 %
28.01.2019 01:50 3,0 C 1,7 C 1,7 C 94 % 987,1 hPa 0,0 l/m 0 min 2 min 0 W/m 22,5 km/h (4 Bft) 97,87 %
28.01.2019 01:52 3,0 C 1,7 C 1,7 C 94 % 987,0 hPa 0,0 l/m 0 min 2 min 0 W/m 19,3 km/h (3 Bft) 97,87 %
28.01.2019 01:54 3,0 C 1,7 C 1,7 C 94 % 987,0 hPa 0,0 l/m 0 min 2 min 0 W/m 22,5 km/h (4 Bft) 97,87 %
28.01.2019 01:56 3,0 C 1,7 C 1,7 C 94 % 987,0 hPa 0,0 l/m 0 min 2 min 0 W/m 29,0 km/h (5 Bft) 95,65 %
28.01.2019 01:58 3,0 C 1,7 C 1,7 C 94 % 986,9 hPa 0,0 l/m 0 min 2 min 0 W/m 29,0 km/h (5 Bft) 97,87 %
28.01.2019 02:00 2,9 C 2,2 C 1,7 C 94 % 986,9 hPa 0,0 l/m 0 min 2 min 0 W/m 25,7 km/h (4 Bft) 97,87 %
28.01.2019 02:02 2,9 C 1,7 C 1,7 C 94 % 987,1 hPa 0,0 l/m 0 min 2 min 0 W/m 29,0 km/h (5 Bft) 97,87 %
28.01.2019 02:04 2,9 C 1,7 C 1,1 C 94 % 986,9 hPa 0,0 l/m 0 min 2 min 0 W/m 22,5 km/h (4 Bft) 93,62 %
28.01.2019 02:06 2,9 C 1,7 C 1,1 C 94 % 986,9 hPa 0,0 l/m 0 min 2 min 0 W/m 38,6 km/h (5 Bft) 94,83 %
28.01.2019 02:08 2,9 C 1,7 C 1,1 C 94 % 986,9 hPa 0,2 l/m 0 min 2 min 0 W/m 25,7 km/h (4 Bft) 97,14 %
28.01.2019 02:10 2,9 C 1,7 C 1,1 C 94 % 986,8 hPa 0,0 l/m 0 min 2 min 0 W/m 38,6 km/h (5 Bft) 95,74 %
28.01.2019 02:12 2,9 C 1,7 C 1,1 C 94 % 986,8 hPa 0,0 l/m 0 min 2 min 0 W/m 32,2 km/h (5 Bft) 95,74 %
28.01.2019 02:14 2,9 C 1,7 C 1,1 C 94 % 986,9 hPa 0,0 l/m 0 min 2 min 0 W/m 25,7 km/h (4 Bft) 93,62 %
28.01.2019 02:16 2,9 C 1,7 C 1,1 C 94 % 987,0 hPa 0,0 l/m 0 min 2 min 0 W/m 35,4 km/h (5 Bft) 95,74 %
28.01.2019 02:18 2,8 C 1,7 C 1,1 C 94 % 986,8 hPa 0,0 l/m 0 min 2 min 0 W/m 19,3 km/h (3 Bft) 95,74 %
28.01.2019 02:20 2,8 C 1,7 C 1,1 C 94 % 986,9 hPa 0,0 l/m 0 min 2 min 0 W/m 25,7 km/h (4 Bft) 97,83 %
28.01.2019 02:22 2,8 C 1,7 C 1,1 C 94 % 986,8 hPa 0,0 l/m 0 min 2 min 0 W/m 22,5 km/h (4 Bft) 93,62 %
28.01.2019 02:24 2,8 C 1,7 C 1,1 C 94 % 986,8 hPa 0,0 l/m 0 min 2 min 0 W/m 29,0 km/h (5 Bft) 97,87 %
28.01.2019 02:26 2,8 C 1,7 C 1,1 C 94 % 986,7 hPa 0,0 l/m 0 min 2 min 0 W/m 29,0 km/h (5 Bft) 97,87 %
28.01.2019 02:28 2,8 C 1,7 C 1,1 C 94 % 986,8 hPa 0,0 l/m 0 min 2 min 0 W/m 29,0 km/h (5 Bft) 95,74 %
28.01.2019 02:30 2,7 C 1,7 C 1,1 C 94 % 986,7 hPa 0,0 l/m 0 min 2 min 0 W/m 22,5 km/h (4 Bft) 95,74 %
28.01.2019 02:32 2,7 C 1,7 C 1,1 C 94 % 986,8 hPa 0,2 l/m 0 min 2 min 0 W/m 25,7 km/h (4 Bft) 97,83 %
28.01.2019 02:34 2,7 C 1,7 C 1,1 C 94 % 986,6 hPa 0,0 l/m 0 min 2 min 0 W/m 25,7 km/h (4 Bft) 97,87 %
28.01.2019 02:36 2,7 C 1,7 C 1,1 C 94 % 986,5 hPa 0,0 l/m 0 min 2 min 0 W/m 25,7 km/h (4 Bft) 96,23 %
28.01.2019 02:38 2,7 C 1,7 C 1,1 C 94 % 986,7 hPa 0,0 l/m 0 min 2 min 0 W/m 32,2 km/h (5 Bft) 97,56 %
28.01.2019 02:40 2,7 C 1,7 C 1,1 C 94 % 986,9 hPa 0,0 l/m 0 min 2 min 0 W/m 48,3 km/h (6 Bft) 100,00 %
28.01.2019 02:42 2,7 C 1,7 C 1,1 C 94 % 986,7 hPa 0,0 l/m 0 min 2 min 0 W/m 35,4 km/h (5 Bft) 97,83 %
28.01.2019 02:44 2,7 C 1,7 C 1,1 C 94 % 986,5 hPa 0,0 l/m 0 min 2 min 0 W/m 32,2 km/h (5 Bft) 93,62 %
28.01.2019 02:46 2,7 C 1,7 C 1,1 C 94 % 986,6 hPa 0,0 l/m 0 min 2 min 0 W/m 38,6 km/h (5 Bft) 97,87 %
28.01.2019 02:48 2,7 C 1,7 C 1,1 C 94 % 986,6 hPa 0,0 l/m 0 min 2 min 0 W/m 29,0 km/h (5 Bft) 100,00 %
28.01.2019 02:50 2,7 C 1,7 C 1,1 C 95 % 986,5 hPa 0,0 l/m 0 min 2 min 0 W/m 41,8 km/h (6 Bft) 97,87 %
28.01.2019 02:52 2,7 C 1,7 C 1,1 C 95 % 986,4 hPa 0,2 l/m 0 min 2 min 0 W/m 38,6 km/h (5 Bft) 100,00 %
28.01.2019 02:54 2,7 C 1,7 C 1,1 C 95 % 986,4 hPa 0,0 l/m 0 min 2 min 0 W/m 32,2 km/h (5 Bft) 100,00 %
28.01.2019 02:56 2,6 C 1,7 C 1,1 C 95 % 986,7 hPa 0,0 l/m 0 min 2 min 0 W/m 35,4 km/h (5 Bft) 97,87 %
28.01.2019 02:58 2,6 C 1,7 C 1,1 C 95 % 986,3 hPa 0,0 l/m 0 min 2 min 0 W/m 38,6 km/h (5 Bft) 100,00 %
28.01.2019 03:00 2,6 C 1,7 C 1,1 C 95 % 986,3 hPa 0,0 l/m 0 min 2 min 0 W/m 35,4 km/h (5 Bft) 100,00 %
28.01.2019 03:02 2,6 C 1,7 C 1,1 C 95 % 986,3 hPa 0,0 l/m 0 min 2 min 0 W/m 25,7 km/h (4 Bft) 98,15 %
28.01.2019 03:04 2,6 C 1,7 C 1,1 C 95 % 986,5 hPa 0,0 l/m 0 min 2 min 0 W/m 22,5 km/h (4 Bft) 100,00 %
28.01.2019 03:06 2,6 C 1,7 C 1,1 C 95 % 986,3 hPa 0,2 l/m 0 min 2 min 0 W/m 45,1 km/h (6 Bft) 97,87 %
28.01.2019 03:08 2,6 C 1,7 C 1,1 C 95 % 986,4 hPa 0,0 l/m 0 min 2 min 0 W/m 29,0 km/h (5 Bft) 100,00 %
28.01.2019 03:10 2,5 C 1,1 C 1,1 C 95 % 986,2 hPa 0,0 l/m 0 min 2 min 0 W/m 45,1 km/h (6 Bft) 95,74 %
28.01.2019 03:12 2,5 C 1,1 C 1,1 C 95 % 986,6 hPa 0,0 l/m 0 min 2 min 0 W/m 45,1 km/h (6 Bft) 100,00 %
28.01.2019 03:14 2,5 C 1,1 C 1,1 C 95 % 986,3 hPa 0,0 l/m 0 min 2 min 0 W/m 32,2 km/h (5 Bft) 95,74 %
28.01.2019 03:16 2,5 C 1,1 C 1,1 C 95 % 986,2 hPa 0,2 l/m 0 min 2 min 0 W/m 32,2 km/h (5 Bft) 97,83 %
28.01.2019 03:18 2,5 C 1,1 C 1,1 C 95 % 986,3 hPa 0,0 l/m 0 min 2 min 0 W/m 25,7 km/h (4 Bft) 100,00 %
28.01.2019 03:20 2,4 C 1,1 C 1,1 C 95 % 986,5 hPa 0,0 l/m 0 min 2 min 0 W/m 41,8 km/h (6 Bft) 100,00 %
28.01.2019 03:22 2,4 C 1,1 C 1,1 C 95 % 986,1 hPa 0,0 l/m 0 min 2 min 0 W/m 25,7 km/h (4 Bft) 97,87 %
28.01.2019 03:24 2,4 C 1,1 C 1,1 C 95 % 986,2 hPa 0,0 l/m 0 min 2 min 0 W/m 25,7 km/h (4 Bft) 97,87 %
28.01.2019 03:26 2,4 C 1,1 C 1,1 C 95 % 986,0 hPa 0,0 l/m 0 min 2 min 0 W/m 19,3 km/h (3 Bft) 97,87 %
28.01.2019 03:28 2,4 C 1,1 C 1,1 C 95 % 986,1 hPa 0,0 l/m 0 min 2 min 0 W/m 19,3 km/h (3 Bft) 97,83 %
28.01.2019 03:30 2,4 C 1,1 C 1,1 C 95 % 986,1 hPa 0,2 l/m 0 min 2 min 0 W/m 25,7 km/h (4 Bft) 97,87 %
28.01.2019 03:32 2,4 C 1,1 C 1,1 C 95 % 986,0 hPa 0,0 l/m 0 min 2 min 0 W/m 51,5 km/h (7 Bft) 97,87 %
28.01.2019 03:34 2,3 C 1,1 C 0,6 C 95 % 986,1 hPa 0,0 l/m 0 min 2 min 0 W/m 29,0 km/h (5 Bft) 97,87 %
28.01.2019 03:36 2,3 C 1,1 C 1,1 C 95 % 986,1 hPa 0,0 l/m 0 min 2 min 0 W/m 16,1 km/h (3 Bft) 97,87 %
28.01.2019 03:38 2,3 C 1,1 C 1,1 C 95 % 986,1 hPa 0,2 l/m 0 min 2 min 0 W/m 22,5 km/h (4 Bft) 97,92 %
28.01.2019 03:40 2,3 C 1,1 C 0,6 C 95 % 986,0 hPa 0,0 l/m 0 min 2 min 0 W/m 19,3 km/h (3 Bft) 95,74 %
28.01.2019 03:42 2,3 C 1,1 C 0,6 C 95 % 986,1 hPa 0,0 l/m 0 min 2 min 0 W/m 25,7 km/h (4 Bft) 95,74 %
28.01.2019 03:44 2,3 C 1,1 C 0,6 C 95 % 986,3 hPa 0,0 l/m 0 min 2 min 0 W/m 41,8 km/h (6 Bft) 97,87 %
28.01.2019 03:46 2,3 C 1,1 C 0,6 C 95 % 986,0 hPa 0,2 l/m 0 min 2 min 0 W/m 38,6 km/h (5 Bft) 95,74 %
28.01.2019 03:48 2,2 C 1,1 C 0,6 C 95 % 986,1 hPa 0,0 l/m 0 min 2 min 0 W/m 19,3 km/h (3 Bft) 97,87 %
28.01.2019 03:50 2,2 C 1,1 C 0,6 C 95 % 986,0 hPa 0,0 l/m 0 min 2 min 0 W/m 16,1 km/h (3 Bft) 95,65 %
28.01.2019 03:52 2,2 C 1,1 C 0,6 C 95 % 986,2 hPa 0,0 l/m 0 min 2 min 0 W/m 38,6 km/h (5 Bft) 97,87 %
28.01.2019 03:54 2,2 C 1,1 C 0,6 C 95 % 986,0 hPa 0,2 l/m 0 min 2 min 0 W/m 25,7 km/h (4 Bft) 97,87 %
28.01.2019 03:56 2,2 C 1,1 C 0,6 C 95 % 986,0 hPa 0,0 l/m 0 min 2 min 0 W/m 16,1 km/h (3 Bft) 97,87 %
28.01.2019 03:58 2,1 C 1,1 C 0,6 C 95 % 985,9 hPa 0,0 l/m 0 min 2 min 0 W/m 22,5 km/h (4 Bft) 97,87 %
28.01.2019 04:00 2,1 C 1,1 C 0,6 C 95 % 985,9 hPa 0,0 l/m 0 min 2 min 0 W/m 35,4 km/h (5 Bft) 97,83 %
28.01.2019 04:05 2,1 C 1,1 C 0,6 C 95 % 986,0 hPa 0,0 l/m 0 min 5 min 0 W/m 22,5 km/h (4 Bft) 98,44 %
28.01.2019 04:06 2,1 C 1,1 C 0,6 C 95 % 986,0 hPa 0,2 l/m 0 min 1 min 0 W/m 32,2 km/h (5 Bft) 100,00 %
28.01.2019 04:08 2,1 C 1,1 C 0,6 C 95 % 986,0 hPa 0,0 l/m 0 min 2 min 0 W/m 25,7 km/h (4 Bft) 97,87 %
28.01.2019 04:10 2,1 C 1,1 C 0,6 C 95 % 985,9 hPa 0,0 l/m 0 min 2 min 0 W/m 29,0 km/h (5 Bft) 97,87 %
28.01.2019 04:12 2,1 C 1,1 C 0,6 C 95 % 985,8 hPa 0,0 l/m 0 min 2 min 0 W/m 19,3 km/h (3 Bft) 97,83 %
28.01.2019 04:14 2,1 C 1,1 C 0,6 C 95 % 985,9 hPa 0,0 l/m 0 min 2 min 0 W/m 16,1 km/h (3 Bft) 95,74 %
28.01.2019 04:16 2,1 C 1,1 C 0,6 C 96 % 985,8 hPa 0,2 l/m 0 min 2 min 0 W/m 19,3 km/h (3 Bft) 95,74 %
28.01.2019 04:18 2,1 C 1,1 C 0,6 C 96 % 985,8 hPa 0,0 l/m 0 min 2 min 0 W/m 25,7 km/h (4 Bft) 95,74 %
28.01.2019 04:20 2,1 C 1,1 C 0,6 C 96 % 985,8 hPa 0,0 l/m 0 min 2 min 0 W/m 22,5 km/h (4 Bft) 95,74 %
28.01.2019 04:22 2,1 C 1,1 C 0,6 C 96 % 985,8 hPa 0,0 l/m 0 min 0 min 0 W/m 25,7 km/h (4 Bft) 100,00 %
28.01.2019 04:24 2,1 C 1,1 C 0,6 C 96 % 985,9 hPa 0,0 l/m 0 min 0 min 0 W/m 32,2 km/h (5 Bft) 97,83 %
28.01.2019 04:26 2,1 C 1,1 C 0,6 C 96 % 985,8 hPa 0,0 l/m 0 min 2 min 0 W/m 41,8 km/h (6 Bft) 97,87 %
28.01.2019 04:28 2,1 C 1,1 C 0,6 C 96 % 985,8 hPa 0,0 l/m 0 min 2 min 0 W/m 25,7 km/h (4 Bft) 100,00 %
28.01.2019 04:30 2,1 C 1,1 C 0,6 C 96 % 986,0 hPa 0,0 l/m 0 min 2 min 0 W/m 19,3 km/h (3 Bft) 97,87 %
28.01.2019 04:32 2,1 C 1,1 C 0,6 C 96 % 985,8 hPa 0,0 l/m 0 min 2 min 0 W/m 32,2 km/h (5 Bft) 97,92 %
28.01.2019 04:34 2,1 C 1,1 C 0,6 C 96 % 986,0 hPa 0,0 l/m 0 min 2 min 0 W/m 25,7 km/h (4 Bft) 95,74 %
28.01.2019 04:36 2,1 C 1,1 C 0,6 C 96 % 985,8 hPa 0,0 l/m 0 min 2 min 0 W/m 25,7 km/h (4 Bft) 95,65 %
28.01.2019 04:38 2,1 C 1,1 C 0,6 C 96 % 985,9 hPa 0,0 l/m 0 min 2 min 0 W/m 29,0 km/h (5 Bft) 93,62 %
28.01.2019 04:40 2,1 C 1,1 C 0,6 C 96 % 985,8 hPa 0,0 l/m 0 min 2 min 0 W/m 22,5 km/h (4 Bft) 95,74 %
28.01.2019 04:42 2,1 C 1,1 C 0,6 C 96 % 985,8 hPa 0,0 l/m 0 min 2 min 0 W/m 25,7 km/h (4 Bft) 95,74 %
28.01.2019 04:44 2,1 C 1,1 C 0,6 C 96 % 986,0 hPa 0,0 l/m 0 min 2 min 0 W/m 38,6 km/h (5 Bft) 95,74 %
28.01.2019 04:46 2,1 C 1,1 C 0,6 C 96 % 985,8 hPa 0,0 l/m 0 min 2 min 0 W/m 29,0 km/h (5 Bft) 95,65 %
28.01.2019 04:48 2,1 C 1,1 C 0,6 C 96 % 985,8 hPa 0,0 l/m 0 min 2 min 0 W/m 25,7 km/h (4 Bft) 95,74 %
28.01.2019 04:50 2,1 C 1,1 C 0,6 C 96 % 985,8 hPa 0,0 l/m 0 min 2 min 0 W/m 22,5 km/h (4 Bft) 95,74 %
28.01.2019 04:52 2,1 C 1,1 C 0,6 C 96 % 985,8 hPa 0,0 l/m 0 min 2 min 0 W/m 22,5 km/h (4 Bft) 89,36 %
28.01.2019 04:54 2,1 C 1,1 C 0,6 C 96 % 985,9 hPa 0,0 l/m 0 min 2 min 0 W/m 32,2 km/h (5 Bft) 93,62 %
28.01.2019 04:56 2,1 C 1,1 C 0,6 C 96 % 985,9 hPa 0,0 l/m 0 min 2 min 0 W/m 22,5 km/h (4 Bft) 95,74 %
28.01.2019 04:58 2,1 C 1,1 C 0,6 C 96 % 986,0 hPa 0,0 l/m 0 min 2 min 0 W/m 22,5 km/h (4 Bft) 95,65 %
28.01.2019 05:00 2,1 C 1,1 C 0,6 C 96 % 986,0 hPa 0,0 l/m 0 min 2 min 0 W/m 29,0 km/h (5 Bft) 95,74 %
28.01.2019 05:02 2,1 C 1,1 C 0,6 C 96 % 986,1 hPa 0,0 l/m 0 min 2 min 0 W/m 22,5 km/h (4 Bft) 95,74 %
28.01.2019 05:04 2,1 C 1,1 C 0,6 C 96 % 986,0 hPa 0,0 l/m 0 min 2 min 0 W/m 29,0 km/h (5 Bft) 95,74 %
28.01.2019 05:06 2,0 C 1,1 C 0,6 C 96 % 985,9 hPa 0,0 l/m 0 min 2 min 0 W/m 19,3 km/h (3 Bft) 95,74 %
28.01.2019 05:08 2,0 C 1,1 C 0,6 C 96 % 986,1 hPa 0,0 l/m 0 min 2 min 0 W/m 35,4 km/h (5 Bft) 95,74 %
28.01.2019 05:10 2,0 C 1,1 C 0,6 C 96 % 986,0 hPa 0,0 l/m 0 min 2 min 0 W/m 29,0 km/h (5 Bft) 93,48 %
28.01.2019 05:12 2,0 C 1,1 C 0,6 C 96 % 986,0 hPa 0,0 l/m 0 min 2 min 0 W/m 22,5 km/h (4 Bft) 95,74 %
28.01.2019 05:14 2,0 C 1,1 C 0,6 C 96 % 986,0 hPa 0,0 l/m 0 min 2 min 0 W/m 16,1 km/h (3 Bft) 93,62 %
28.01.2019 05:16 2,0 C 1,1 C 0,6 C 96 % 986,0 hPa 0,0 l/m 0 min 2 min 0 W/m 19,3 km/h (3 Bft) 93,62 %
28.01.2019 05:18 2,0 C 1,1 C 0,6 C 96 % 986,0 hPa 0,0 l/m 0 min 2 min 0 W/m 16,1 km/h (3 Bft) 95,74 %
28.01.2019 05:20 1,9 C 1,1 C 0,6 C 96 % 985,9 hPa 0,0 l/m 0 min 2 min 0 W/m 19,3 km/h (3 Bft) 93,62 %
28.01.2019 05:22 1,9 C 1,1 C 0,6 C 96 % 985,9 hPa 0,0 l/m 0 min 2 min 0 W/m 25,7 km/h (4 Bft) 100,00 %
28.01.2019 05:24 1,9 C 1,1 C 0,6 C 96 % 986,1 hPa 0,2 l/m 0 min 2 min 0 W/m 25,7 km/h (4 Bft) 97,87 %
28.01.2019 05:26 1,9 C 1,1 C 0,6 C 96 % 985,9 hPa 0,0 l/m 0 min 2 min 0 W/m 19,3 km/h (3 Bft) 97,87 %
28.01.2019 05:28 1,9 C 1,1 C 0,6 C 96 % 986,0 hPa 0,0 l/m 0 min 2 min 0 W/m 29,0 km/h (5 Bft) 95,74 %
28.01.2019 05:30 1,9 C 1,1 C 0,6 C 96 % 986,0 hPa 0,0 l/m 0 min 2 min 0 W/m 29,0 km/h (5 Bft) 100,00 %
28.01.2019 05:32 1,8 C 1,1 C 0,6 C 96 % 986,0 hPa 0,0 l/m 0 min 2 min 0 W/m 12,9 km/h (3 Bft) 97,87 %
28.01.2019 05:34 1,8 C 1,1 C 0,6 C 96 % 985,9 hPa 0,0 l/m 0 min 2 min 0 W/m 19,3 km/h (3 Bft) 100,00 %
28.01.2019 05:36 1,8 C 0,6 C 0,6 C 96 % 985,9 hPa 0,0 l/m 0 min 2 min 0 W/m 25,7 km/h (4 Bft) 100,00 %
28.01.2019 05:38 1,8 C 0,6 C 0,6 C 96 % 986,0 hPa 0,2 l/m 0 min 2 min 0 W/m 19,3 km/h (3 Bft) 100,00 %
28.01.2019 05:40 1,8 C 1,1 C 0,6 C 96 % 985,9 hPa 0,0 l/m 0 min 2 min 0 W/m 29,0 km/h (5 Bft) 100,00 %
28.01.2019 05:42 1,8 C 1,1 C 0,6 C 96 % 985,9 hPa 0,0 l/m 0 min 2 min 0 W/m 19,3 km/h (3 Bft) 100,00 %
28.01.2019 05:44 1,8 C 1,1 C 0,6 C 96 % 986,0 hPa 0,0 l/m 0 min 2 min 0 W/m 16,1 km/h (3 Bft) 100,00 %
28.01.2019 05:46 1,8 C 1,1 C 0,6 C 96 % 986,0 hPa 0,0 l/m 0 min 2 min 0 W/m 22,5 km/h (4 Bft) 100,00 %
28.01.2019 05:48 1,8 C 1,1 C 0,6 C 96 % 986,0 hPa 0,0 l/m 0 min 2 min 0 W/m 22,5 km/h (4 Bft) 100,00 %
28.01.2019 05:50 1,8 C 1,1 C 0,6 C 96 % 986,0 hPa 0,0 l/m 0 min 2 min 0 W/m 19,3 km/h (3 Bft) 100,00 %
28.01.2019 05:52 1,8 C 1,1 C 0,6 C 96 % 986,0 hPa 0,0 l/m 0 min 2 min 0 W/m 19,3 km/h (3 Bft) 100,00 %
28.01.2019 05:54 1,8 C 1,1 C 0,6 C 96 % 985,9 hPa 0,0 l/m 0 min 2 min 0 W/m 22,5 km/h (4 Bft) 100,00 %
28.01.2019 05:56 1,8 C 1,1 C 0,6 C 96 % 986,0 hPa 0,0 l/m 0 min 2 min 0 W/m 22,5 km/h (4 Bft) 100,00 %
28.01.2019 05:58 1,8 C 1,1 C 0,6 C 96 % 985,9 hPa 0,0 l/m 0 min 2 min 0 W/m 25,7 km/h (4 Bft) 100,00 %
28.01.2019 06:00 1,8 C 1,1 C 0,6 C 96 % 986,0 hPa 0,0 l/m 0 min 2 min 0 W/m 19,3 km/h (3 Bft) 100,00 %
28.01.2019 06:02 1,8 C 1,1 C 0,6 C 96 % 986,0 hPa 0,2 l/m 0 min 2 min 0 W/m 29,0 km/h (5 Bft) 100,00 %
28.01.2019 06:04 1,8 C 1,1 C 0,6 C 96 % 986,2 hPa 0,0 l/m 0 min 2 min 0 W/m 25,7 km/h (4 Bft) 100,00 %
28.01.2019 06:08 1,8 C 1,1 C 0,6 C 96 % 985,9 hPa 0,0 l/m 0 min 4 min 0 W/m 32,2 km/h (5 Bft) 100,00 %
28.01.2019 06:10 1,9 C 1,1 C 0,6 C 96 % 986,0 hPa 0,0 l/m 0 min 2 min 0 W/m 19,3 km/h (3 Bft) 100,00 %
28.01.2019 06:12 1,8 C 1,1 C 0,6 C 96 % 985,9 hPa 0,0 l/m 0 min 2 min 0 W/m 29,0 km/h (5 Bft) 100,00 %
28.01.2019 06:14 1,8 C 1,1 C 0,6 C 96 % 985,9 hPa 0,0 l/m 0 min 2 min 0 W/m 22,5 km/h (4 Bft) 100,00 %
28.01.2019 06:16 1,9 C 1,1 C 0,6 C 96 % 985,9 hPa 0,2 l/m 0 min 2 min 0 W/m 19,3 km/h (3 Bft) 100,00 %
28.01.2019 06:18 1,8 C 1,1 C 0,6 C 96 % 985,8 hPa 0,0 l/m 0 min 2 min 0 W/m 25,7 km/h (4 Bft) 100,00 %
28.01.2019 06:20 1,8 C 1,1 C 0,6 C 96 % 985,9 hPa 0,0 l/m 0 min 2 min 0 W/m 25,7 km/h (4 Bft) 100,00 %
28.01.2019 06:22 1,8 C 1,1 C 0,6 C 96 % 986,0 hPa 0,0 l/m 0 min 2 min 0 W/m 16,1 km/h (3 Bft) 95,74 %
28.01.2019 06:24 1,8 C 1,1 C 0,6 C 96 % 986,0 hPa 0,0 l/m 0 min 2 min 0 W/m 19,3 km/h (3 Bft) 100,00 %
28.01.2019 06:26 1,8 C 1,1 C 0,6 C 96 % 985,9 hPa 0,0 l/m 0 min 2 min 0 W/m 32,2 km/h (5 Bft) 100,00 %
28.01.2019 06:28 1,8 C 1,1 C 0,6 C 96 % 986,0 hPa 0,0 l/m 0 min 2 min 0 W/m 25,7 km/h (4 Bft) 100,00 %
28.01.2019 06:30 1,8 C 1,1 C 0,6 C 96 % 986,0 hPa 0,0 l/m 0 min 2 min 0 W/m 12,9 km/h (3 Bft) 100,00 %
28.01.2019 06:32 1,8 C 1,1 C 0,6 C 97 % 985,9 hPa 0,0 l/m 0 min 2 min 0 W/m 25,7 km/h (4 Bft) 100,00 %
28.01.2019 06:34 1,8 C 1,1 C 0,6 C 97 % 986,0 hPa 0,0 l/m 0 min 2 min 0 W/m 22,5 km/h (4 Bft) 100,00 %
28.01.2019 06:36 1,8 C 1,1 C 0,6 C 97 % 986,0 hPa 0,2 l/m 0 min 2 min 0 W/m 25,7 km/h (4 Bft) 100,00 %
28.01.2019 06:38 1,8 C 1,1 C 0,6 C 97 % 986,0 hPa 0,0 l/m 0 min 2 min 0 W/m 16,1 km/h (3 Bft) 100,00 %
28.01.2019 06:40 1,8 C 1,1 C 0,6 C 97 % 986,0 hPa 0,0 l/m 0 min 2 min 0 W/m 19,3 km/h (3 Bft) 97,87 %
28.01.2019 06:42 1,8 C 1,1 C 0,6 C 97 % 986,0 hPa 0,0 l/m 0 min 2 min 0 W/m 22,5 km/h (4 Bft) 95,65 %
28.01.2019 06:44 1,8 C 1,1 C 0,6 C 97 % 986,0 hPa 0,0 l/m 0 min 2 min 0 W/m 25,7 km/h (4 Bft) 97,87 %
28.01.2019 06:46 1,8 C 1,1 C 0,6 C 97 % 986,1 hPa 0,0 l/m 0 min 2 min 0 W/m 16,1 km/h (3 Bft) 97,87 %
28.01.2019 06:48 1,8 C 1,1 C 0,6 C 97 % 986,1 hPa 0,0 l/m 0 min 2 min 0 W/m 16,1 km/h (3 Bft) 97,87 %
28.01.2019 06:50 1,8 C 1,1 C 0,6 C 97 % 986,1 hPa 0,0 l/m 0 min 2 min 0 W/m 19,3 km/h (3 Bft) 97,87 %
28.01.2019 06:52 1,8 C 1,1 C 0,6 C 97 % 986,1 hPa 0,0 l/m 0 min 2 min 0 W/m 19,3 km/h (3 Bft) 95,74 %
28.01.2019 06:54 1,8 C 1,1 C 0,6 C 97 % 986,1 hPa 0,0 l/m 0 min 2 min 0 W/m 19,3 km/h (3 Bft) 97,87 %
28.01.2019 06:56 1,8 C 1,1 C 0,6 C 97 % 986,1 hPa 0,0 l/m 0 min 2 min 0 W/m 19,3 km/h (3 Bft) 97,83 %
28.01.2019 06:58 1,8 C 1,1 C 0,6 C 97 % 986,1 hPa 0,0 l/m 0 min 2 min 0 W/m 19,3 km/h (3 Bft) 95,74 %
28.01.2019 07:00 1,8 C 1,1 C 0,6 C 97 % 986,1 hPa 0,0 l/m 0 min 2 min 0 W/m 12,9 km/h (3 Bft) 97,87 %
28.01.2019 07:02 1,8 C 1,1 C 0,6 C 97 % 986,1 hPa 0,0 l/m 0 min 2 min 0 W/m 12,9 km/h (3 Bft) 97,87 %
28.01.2019 07:04 1,8 C 1,1 C 0,6 C 97 % 986,2 hPa 0,0 l/m 0 min 2 min 0 W/m 19,3 km/h (3 Bft) 91,49 %
28.01.2019 07:06 1,8 C 1,1 C 0,6 C 97 % 986,4 hPa 0,0 l/m 0 min 2 min 0 W/m 16,1 km/h (3 Bft) 97,83 %
28.01.2019 07:08 1,8 C 1,1 C 0,6 C 97 % 986,2 hPa 0,0 l/m 0 min 2 min 0 W/m 19,3 km/h (3 Bft) 97,87 %
28.01.2019 07:10 1,8 C 1,1 C 0,6 C 97 % 986,3 hPa 0,0 l/m 0 min 2 min 0 W/m 16,1 km/h (3 Bft) 97,87 %
28.01.2019 07:12 1,8 C 1,1 C 0,6 C 97 % 986,4 hPa 0,2 l/m 0 min 2 min 0 W/m 19,3 km/h (3 Bft) 93,62 %
28.01.2019 07:14 1,8 C 1,1 C 0,6 C 97 % 986,3 hPa 0,0 l/m 0 min 2 min 0 W/m 16,1 km/h (3 Bft) 95,74 %
28.01.2019 07:16 1,8 C 1,1 C 0,6 C 97 % 986,3 hPa 0,0 l/m 0 min 2 min 0 W/m 25,7 km/h (4 Bft) 95,74 %
28.01.2019 07:18 1,9 C 1,1 C 0,6 C 97 % 986,3 hPa 0,0 l/m 0 min 2 min 0 W/m 25,7 km/h (4 Bft) 93,48 %
28.01.2019 07:20 1,9 C 1,1 C 0,6 C 97 % 986,4 hPa 0,0 l/m 0 min 2 min 0 W/m 19,3 km/h (3 Bft) 91,49 %
28.01.2019 07:22 1,9 C 1,1 C 0,6 C 97 % 986,4 hPa 0,0 l/m 0 min 2 min 0 W/m 19,3 km/h (3 Bft) 95,74 %
28.01.2019 07:24 1,9 C 1,1 C 0,6 C 97 % 986,5 hPa 0,0 l/m 0 min 2 min 0 W/m 16,1 km/h (3 Bft) 95,74 %
28.01.2019 07:26 1,9 C 1,1 C 0,6 C 97 % 986,4 hPa 0,0 l/m 0 min 2 min 0 W/m 12,9 km/h (3 Bft) 93,62 %
28.01.2019 07:28 1,9 C 1,1 C 0,6 C 97 % 986,4 hPa 0,0 l/m 0 min 2 min 0 W/m 12,9 km/h (3 Bft) 93,62 %
28.01.2019 07:30 1,9 C 1,1 C 0,6 C 97 % 986,5 hPa 0,0 l/m 0 min 2 min 0 W/m 16,1 km/h (3 Bft) 93,48 %
28.01.2019 07:32 1,9 C 1,1 C 0,6 C 97 % 986,4 hPa 0,0 l/m 0 min 2 min 0 W/m 16,1 km/h (3 Bft) 93,62 %
28.01.2019 07:34 1,9 C 1,1 C 0,6 C 97 % 986,4 hPa 0,0 l/m 0 min 2 min 0 W/m 16,1 km/h (3 Bft) 89,36 %
28.01.2019 07:36 1,9 C 1,1 C 0,6 C 97 % 986,5 hPa 0,0 l/m 0 min 2 min 0 W/m 9,7 km/h (2 Bft) 93,62 %
28.01.2019 07:38 1,9 C 1,1 C 0,6 C 97 % 986,6 hPa 0,0 l/m 0 min 2 min 0 W/m 25,7 km/h (4 Bft) 89,58 %
28.01.2019 07:40 1,9 C 1,1 C 0,6 C 97 % 986,5 hPa 0,0 l/m 0 min 2 min 0 W/m 12,9 km/h (3 Bft) 95,74 %
28.01.2019 07:42 1,9 C 1,1 C 0,6 C 97 % 986,6 hPa 0,0 l/m 0 min 2 min 0 W/m 16,1 km/h (3 Bft) 95,65 %
28.01.2019 07:44 1,9 C 1,1 C 0,6 C 97 % 986,6 hPa 0,0 l/m 0 min 2 min 0 W/m 16,1 km/h (3 Bft) 93,62 %
28.01.2019 07:46 1,9 C 1,1 C 0,6 C 97 % 986,6 hPa 0,0 l/m 0 min 2 min 0 W/m 19,3 km/h (3 Bft) 93,62 %
28.01.2019 07:48 1,9 C 1,1 C 0,6 C 97 % 986,6 hPa 0,0 l/m 0 min 2 min 0 W/m 6,4 km/h (2 Bft) 95,74 %
28.01.2019 07:50 1,9 C 1,1 C 0,6 C 97 % 986,6 hPa 0,2 l/m 0 min 2 min 0 W/m 12,9 km/h (3 Bft) 100,00 %
28.01.2019 07:52 1,9 C 1,1 C 0,6 C 97 % 986,7 hPa 0,0 l/m 0 min 2 min 0 W/m 12,9 km/h (3 Bft) 93,33 %
28.01.2019 07:54 1,9 C 1,1 C 0,6 C 97 % 986,7 hPa 0,0 l/m 0 min 2 min 0 W/m 9,7 km/h (2 Bft) 97,87 %
28.01.2019 07:56 1,9 C 1,1 C 0,6 C 97 % 986,6 hPa 0,0 l/m 0 min 2 min 0 W/m 9,7 km/h (2 Bft) 97,83 %
28.01.2019 07:58 1,9 C 1,1 C 0,6 C 97 % 986,6 hPa 0,0 l/m 0 min 0 min 0 W/m 12,9 km/h (3 Bft) 97,87 %
28.01.2019 08:00 1,9 C 1,1 C 1,1 C 97 % 986,7 hPa 0,0 l/m 0 min 0 min 0 W/m 9,7 km/h (2 Bft) 97,87 %
28.01.2019 08:02 1,9 C 1,1 C 1,1 C 97 % 986,7 hPa 0,0 l/m 0 min 0 min 0 W/m 9,7 km/h (2 Bft) 95,74 %
28.01.2019 08:04 1,9 C 1,1 C 1,1 C 97 % 986,8 hPa 0,0 l/m 0 min 0 min 0 W/m 6,4 km/h (2 Bft) 93,62 %
28.01.2019 08:06 1,9 C 1,7 C 1,1 C 97 % 986,7 hPa 0,0 l/m 0 min 0 min 0 W/m 9,7 km/h (2 Bft) 97,87 %
28.01.2019 08:08 2,0 C 1,7 C 1,1 C 97 % 986,8 hPa 0,0 l/m 0 min 2 min 0 W/m 16,1 km/h (3 Bft) 97,83 %
28.01.2019 08:10 2,0 C 1,7 C 1,1 C 97 % 986,8 hPa 0,0 l/m 0 min 2 min 0 W/m 6,4 km/h (2 Bft) 97,87 %
28.01.2019 08:12 2,1 C 1,7 C 1,1 C 97 % 986,9 hPa 0,0 l/m 0 min 2 min 0 W/m 19,3 km/h (3 Bft) 95,74 %
28.01.2019 08:14 2,1 C 1,7 C 1,1 C 97 % 986,9 hPa 0,0 l/m 0 min 2 min 0 W/m 16,1 km/h (3 Bft) 97,87 %
28.01.2019 08:16 2,1 C 1,7 C 1,1 C 97 % 986,7 hPa 0,0 l/m 0 min 2 min 0 W/m 19,3 km/h (3 Bft) 95,74 %
28.01.2019 08:18 2,2 C 1,7 C 1,1 C 97 % 986,8 hPa 0,0 l/m 0 min 2 min 0 W/m 22,5 km/h (4 Bft) 97,87 %
28.01.2019 08:20 2,2 C 1,7 C 1,1 C 97 % 986,9 hPa 0,0 l/m 0 min 2 min 0 W/m 9,7 km/h (2 Bft) 97,83 %
28.01.2019 08:22 2,2 C 1,7 C 1,1 C 97 % 986,9 hPa 0,0 l/m 0 min 0 min 0 W/m 12,9 km/h (3 Bft) 97,87 %
28.01.2019 08:24 2,2 C 1,7 C 1,1 C 97 % 987,0 hPa 0,0 l/m 0 min 0 min 0 W/m 16,1 km/h (3 Bft) 97,87 %
28.01.2019 08:26 2,2 C 1,7 C 1,1 C 97 % 987,0 hPa 0,0 l/m 0 min 2 min 0 W/m 9,7 km/h (2 Bft) 100,00 %
28.01.2019 08:28 2,3 C 1,7 C 1,1 C 97 % 987,1 hPa 0,0 l/m 0 min 2 min 0 W/m 9,7 km/h (2 Bft) 100,00 %
28.01.2019 08:30 2,3 C 1,7 C 1,1 C 97 % 987,1 hPa 0,0 l/m 0 min 0 min 0 W/m 12,9 km/h (3 Bft) 100,00 %
28.01.2019 08:32 2,3 C 1,7 C 1,1 C 97 % 987,0 hPa 0,0 l/m 0 min 2 min 0 W/m 16,1 km/h (3 Bft) 100,00 %
28.01.2019 08:34 2,3 C 1,7 C 1,1 C 97 % 987,0 hPa 0,0 l/m 0 min 2 min 0 W/m 25,7 km/h (4 Bft) 100,00 %
28.01.2019 08:36 2,3 C 1,7 C 1,1 C 97 % 987,2 hPa 0,0 l/m 0 min 2 min 0 W/m 12,9 km/h (3 Bft) 100,00 %
28.01.2019 08:38 2,3 C 1,7 C 1,1 C 97 % 987,2 hPa 0,0 l/m 0 min 0 min 0 W/m 19,3 km/h (3 Bft) 100,00 %
28.01.2019 08:40 2,3 C 1,7 C 1,1 C 98 % 987,2 hPa 0,0 l/m 0 min 2 min 0 W/m 16,1 km/h (3 Bft) 97,87 %
28.01.2019 08:42 2,3 C 1,7 C 1,1 C 98 % 987,1 hPa 0,2 l/m 0 min 2 min 0 W/m 12,9 km/h (3 Bft) 100,00 %
28.01.2019 08:44 2,4 C 1,7 C 1,1 C 98 % 987,2 hPa 0,0 l/m 0 min 2 min 0 W/m 9,7 km/h (2 Bft) 97,87 %
28.01.2019 08:46 2,4 C 1,7 C 1,1 C 98 % 987,2 hPa 0,0 l/m 0 min 2 min 0 W/m 16,1 km/h (3 Bft) 100,00 %
28.01.2019 08:48 2,4 C 1,7 C 1,1 C 98 % 987,1 hPa 0,0 l/m 0 min 2 min 0 W/m 12,9 km/h (3 Bft) 100,00 %
28.01.2019 08:50 2,4 C 1,7 C 1,1 C 98 % 987,1 hPa 0,0 l/m 0 min 2 min 0 W/m 12,9 km/h (3 Bft) 100,00 %
28.01.2019 08:52 2,4 C 1,7 C 1,1 C 98 % 987,1 hPa 0,2 l/m 0 min 2 min 0 W/m 19,3 km/h (3 Bft) 97,87 %
28.01.2019 08:54 2,4 C 1,7 C 1,1 C 98 % 987,2 hPa 0,0 l/m 0 min 2 min 4 W/m 16,1 km/h (3 Bft) 100,00 %
28.01.2019 08:56 2,4 C 1,7 C 1,1 C 98 % 987,2 hPa 0,0 l/m 0 min 2 min 5 W/m 19,3 km/h (3 Bft) 100,00 %
28.01.2019 08:58 2,4 C 1,7 C 1,1 C 98 % 987,3 hPa 0,0 l/m 0 min 2 min 5 W/m 16,1 km/h (3 Bft) 100,00 %
28.01.2019 09:00 2,4 C 2,2 C 1,7 C 98 % 987,3 hPa 0,0 l/m 0 min 2 min 6 W/m 16,1 km/h (3 Bft) 100,00 %
28.01.2019 09:02 2,4 C 2,2 C 1,7 C 98 % 987,4 hPa 0,0 l/m 0 min 2 min 5 W/m 12,9 km/h (3 Bft) 100,00 %
28.01.2019 09:04 2,5 C 2,2 C 1,7 C 97 % 987,3 hPa 0,0 l/m 0 min 2 min 6 W/m 9,7 km/h (2 Bft) 97,87 %
28.01.2019 09:06 2,5 C 2,2 C 1,7 C 97 % 987,4 hPa 0,0 l/m 0 min 2 min 7 W/m 12,9 km/h (3 Bft) 100,00 %
28.01.2019 09:08 2,6 C 2,2 C 1,7 C 98 % 987,4 hPa 0,0 l/m 0 min 2 min 7 W/m 12,9 km/h (3 Bft) 100,00 %
28.01.2019 09:10 2,6 C 2,2 C 1,7 C 98 % 987,4 hPa 0,0 l/m 0 min 2 min 8 W/m 9,7 km/h (2 Bft) 100,00 %
28.01.2019 09:12 2,7 C 2,2 C 1,7 C 98 % 987,5 hPa 0,2 l/m 0 min 2 min 7 W/m 29,0 km/h (5 Bft) 100,00 %
28.01.2019 09:14 2,7 C 2,2 C 1,7 C 98 % 987,5 hPa 0,0 l/m 0 min 2 min 7 W/m 16,1 km/h (3 Bft) 97,87 %
28.01.2019 09:16 2,8 C 2,2 C 1,7 C 98 % 987,5 hPa 0,0 l/m 0 min 2 min 10 W/m 12,9 km/h (3 Bft) 97,87 %
28.01.2019 09:18 2,8 C 2,8 C 1,7 C 98 % 987,6 hPa 0,0 l/m 0 min 2 min 10 W/m 16,1 km/h (3 Bft) 95,65 %
28.01.2019 09:20 2,9 C 2,8 C 2,2 C 98 % 987,6 hPa 0,0 l/m 0 min 2 min 12 W/m 22,5 km/h (4 Bft) 100,00 %
28.01.2019 09:22 2,9 C 2,8 C 2,2 C 98 % 987,7 hPa 0,0 l/m 0 min 2 min 11 W/m 19,3 km/h (3 Bft) 100,00 %
28.01.2019 09:24 3,0 C 2,8 C 2,2 C 98 % 987,7 hPa 0,0 l/m 0 min 0 min 8 W/m 16,1 km/h (3 Bft) 97,87 %
28.01.2019 09:26 3,1 C 2,8 C 2,2 C 98 % 987,9 hPa 0,0 l/m 0 min 2 min 10 W/m 22,5 km/h (4 Bft) 100,00 %
28.01.2019 09:28 3,2 C 2,8 C 2,2 C 98 % 987,9 hPa 0,0 l/m 0 min 2 min 13 W/m 16,1 km/h (3 Bft) 100,00 %
28.01.2019 09:30 3,2 C 2,8 C 2,2 C 98 % 987,9 hPa 0,0 l/m 0 min 0 min 13 W/m 32,2 km/h (5 Bft) 100,00 %
28.01.2019 09:32 3,3 C 2,8 C 2,2 C 98 % 988,0 hPa 0,0 l/m 0 min 0 min 16 W/m 19,3 km/h (3 Bft) 100,00 %
28.01.2019 09:34 3,3 C 2,8 C 2,2 C 98 % 988,0 hPa 0,0 l/m 0 min 2 min 17 W/m 16,1 km/h (3 Bft) 100,00 %
28.01.2019 09:36 3,4 C 2,8 C 2,2 C 98 % 988,0 hPa 0,0 l/m 0 min 2 min 14 W/m 19,3 km/h (3 Bft) 97,87 %
28.01.2019 09:38 3,4 C 3,3 C 2,2 C 98 % 988,1 hPa 0,0 l/m 0 min 2 min 14 W/m 29,0 km/h (5 Bft) 100,00 %
28.01.2019 09:40 3,5 C 3,3 C 2,2 C 98 % 988,1 hPa 0,0 l/m 0 min 2 min 14 W/m 19,3 km/h (3 Bft) 97,83 %
28.01.2019 09:42 3,6 C 3,3 C 2,2 C 98 % 988,1 hPa 0,0 l/m 0 min 2 min 21 W/m 19,3 km/h (3 Bft) 97,87 %
28.01.2019 09:44 3,6 C 3,3 C 2,8 C 98 % 988,2 hPa 0,0 l/m 0 min 2 min 36 W/m 12,9 km/h (3 Bft) 97,87 %
28.01.2019 09:46 3,6 C 3,3 C 2,8 C 98 % 988,2 hPa 0,0 l/m 0 min 2 min 42 W/m 19,3 km/h (3 Bft) 97,87 %
28.01.2019 09:48 3,7 C 3,3 C 2,8 C 98 % 988,2 hPa 0,0 l/m 0 min 2 min 38 W/m 16,1 km/h (3 Bft) 97,87 %
28.01.2019 09:50 3,7 C 3,3 C 2,8 C 98 % 988,3 hPa 0,0 l/m 0 min 0 min 40 W/m 22,5 km/h (4 Bft) 97,87 %
28.01.2019 09:52 3,7 C 3,3 C 2,8 C 98 % 988,3 hPa 0,0 l/m 0 min 0 min 35 W/m 19,3 km/h (3 Bft) 95,65 %
28.01.2019 09:54 3,8 C 3,3 C 2,8 C 98 % 988,4 hPa 0,0 l/m 0 min 2 min 27 W/m 22,5 km/h (4 Bft) 97,87 %
28.01.2019 09:56 3,8 C 3,3 C 2,8 C 98 % 988,4 hPa 0,0 l/m 0 min 0 min 28 W/m 22,5 km/h (4 Bft) 93,62 %
28.01.2019 09:58 3,8 C 3,3 C 2,8 C 98 % 988,5 hPa 0,0 l/m 0 min 0 min 35 W/m 16,1 km/h (3 Bft) 93,62 %
28.01.2019 10:00 3,8 C 3,3 C 2,8 C 98 % 988,5 hPa 0,0 l/m 0 min 0 min 44 W/m 25,7 km/h (4 Bft) 95,74 %
28.01.2019 10:02 3,8 C 3,3 C 2,8 C 98 % 988,5 hPa 0,0 l/m 0 min 2 min 48 W/m 19,3 km/h (3 Bft) 95,74 %
28.01.2019 10:04 3,9 C 3,3 C 2,8 C 98 % 988,6 hPa 0,0 l/m 0 min 0 min 48 W/m 35,4 km/h (5 Bft) 95,65 %
28.01.2019 10:06 3,9 C 3,3 C 2,8 C 98 % 988,6 hPa 0,0 l/m 0 min 0 min 66 W/m 25,7 km/h (4 Bft) 95,74 %
28.01.2019 10:08 3,9 C 3,3 C 2,8 C 98 % 988,6 hPa 0,0 l/m 0 min 0 min 69 W/m 19,3 km/h (3 Bft) 93,62 %
28.01.2019 10:10 3,9 C 3,3 C 2,8 C 98 % 988,7 hPa 0,0 l/m 0 min 0 min 40 W/m 19,3 km/h (3 Bft) 95,74 %
28.01.2019 10:12 3,9 C 3,3 C 2,8 C 98 % 988,7 hPa 0,0 l/m 0 min 0 min 38 W/m 19,3 km/h (3 Bft) 95,74 %
28.01.2019 10:14 3,9 C 3,3 C 2,8 C 98 % 988,7 hPa 0,0 l/m 0 min 2 min 42 W/m 16,1 km/h (3 Bft) 95,74 %
28.01.2019 10:16 3,9 C 3,3 C 2,8 C 98 % 988,7 hPa 0,0 l/m 0 min 0 min 58 W/m 19,3 km/h (3 Bft) 97,83 %
28.01.2019 10:18 3,9 C 3,9 C 3,3 C 98 % 988,8 hPa 0,0 l/m 0 min 0 min 96 W/m 19,3 km/h (3 Bft) 93,62 %
28.01.2019 10:20 3,9 C 3,9 C 3,3 C 98 % 988,8 hPa 0,0 l/m 0 min 2 min 98 W/m 35,4 km/h (5 Bft) 93,62 %
28.01.2019 10:22 4,0 C 3,9 C 3,3 C 98 % 988,9 hPa 0,0 l/m 0 min 2 min 117 W/m 25,7 km/h (4 Bft) 97,87 %
28.01.2019 10:24 4,0 C 3,9 C 3,3 C 98 % 989,0 hPa 0,0 l/m 0 min 0 min 93 W/m 29,0 km/h (5 Bft) 95,74 %
28.01.2019 10:26 4,1 C 3,9 C 3,3 C 98 % 989,0 hPa 0,0 l/m 0 min 0 min 54 W/m 32,2 km/h (5 Bft) 93,62 %
28.01.2019 10:28 4,1 C 3,3 C 2,8 C 98 % 989,0 hPa 0,0 l/m 0 min 0 min 50 W/m 25,7 km/h (4 Bft) 93,48 %
28.01.2019 10:30 4,1 C 3,3 C 2,8 C 98 % 989,1 hPa 0,0 l/m 0 min 0 min 38 W/m 41,8 km/h (6 Bft) 95,74 %
28.01.2019 10:32 4,1 C 3,3 C 2,8 C 98 % 989,1 hPa 0,0 l/m 0 min 2 min 31 W/m 16,1 km/h (3 Bft) 97,87 %
28.01.2019 10:34 4,1 C 3,3 C 2,8 C 98 % 989,2 hPa 0,0 l/m 0 min 2 min 38 W/m 19,3 km/h (3 Bft) 93,62 %
28.01.2019 10:36 4,1 C 3,3 C 2,8 C 98 % 989,3 hPa 0,0 l/m 0 min 2 min 40 W/m 29,0 km/h (5 Bft) 94,23 %
28.01.2019 10:38 4,0 C 3,3 C 2,8 C 98 % 989,4 hPa 0,0 l/m 0 min 2 min 38 W/m 22,5 km/h (4 Bft) 97,62 %
28.01.2019 10:40 4,0 C 3,3 C 2,8 C 98 % 989,4 hPa 0,0 l/m 0 min 2 min 37 W/m 25,7 km/h (4 Bft) 93,48 %
28.01.2019 10:42 3,9 C 3,3 C 2,8 C 98 % 989,4 hPa 0,0 l/m 0 min 2 min 48 W/m 25,7 km/h (4 Bft) 93,62 %
28.01.2019 10:44 3,9 C 3,3 C 2,8 C 98 % 989,4 hPa 0,0 l/m 0 min 2 min 47 W/m 25,7 km/h (4 Bft) 93,62 %
28.01.2019 10:46 3,9 C 3,3 C 2,8 C 98 % 989,5 hPa 0,0 l/m 0 min 2 min 54 W/m 22,5 km/h (4 Bft) 93,62 %
28.01.2019 10:48 3,8 C 3,3 C 2,8 C 98 % 989,6 hPa 0,0 l/m 0 min 2 min 48 W/m 22,5 km/h (4 Bft) 97,87 %
28.01.2019 10:50 3,8 C 2,8 C 2,8 C 98 % 989,7 hPa 0,0 l/m 0 min 2 min 42 W/m 45,1 km/h (6 Bft) 97,83 %
28.01.2019 10:52 3,8 C 2,8 C 2,8 C 98 % 989,7 hPa 0,0 l/m 0 min 2 min 44 W/m 38,6 km/h (5 Bft) 93,62 %
28.01.2019 10:54 3,7 C 2,8 C 2,2 C 98 % 989,8 hPa 0,0 l/m 0 min 2 min 44 W/m 22,5 km/h (4 Bft) 97,87 %
28.01.2019 10:56 3,7 C 2,8 C 2,2 C 98 % 989,8 hPa 0,0 l/m 0 min 2 min 43 W/m 19,3 km/h (3 Bft) 95,74 %
28.01.2019 10:58 3,7 C 2,8 C 2,2 C 98 % 989,9 hPa 0,0 l/m 0 min 2 min 42 W/m 19,3 km/h (3 Bft) 97,87 %
28.01.2019 11:00 3,7 C 2,8 C 2,2 C 98 % 989,9 hPa 0,0 l/m 0 min 2 min 42 W/m 22,5 km/h (4 Bft) 95,74 %
28.01.2019 11:02 3,6 C 2,8 C 2,2 C 98 % 990,0 hPa 0,2 l/m 0 min 2 min 37 W/m 22,5 km/h (4 Bft) 95,65 %
28.01.2019 11:04 3,6 C 2,8 C 2,2 C 98 % 990,0 hPa 0,0 l/m 0 min 2 min 32 W/m 22,5 km/h (4 Bft) 97,87 %
28.01.2019 11:06 3,6 C 2,8 C 2,2 C 98 % 990,0 hPa 0,0 l/m 0 min 0 min 31 W/m 38,6 km/h (5 Bft) 96,23 %
28.01.2019 11:08 3,6 C 2,8 C 2,2 C 98 % 990,1 hPa 0,0 l/m 0 min 2 min 27 W/m 22,5 km/h (4 Bft) 97,56 %
28.01.2019 11:10 3,6 C 2,8 C 2,2 C 98 % 990,2 hPa 0,0 l/m 0 min 0 min 28 W/m 29,0 km/h (5 Bft) 97,87 %
28.01.2019 11:12 3,6 C 2,8 C 2,2 C 98 % 990,2 hPa 0,0 l/m 0 min 2 min 30 W/m 25,7 km/h (4 Bft) 97,87 %
28.01.2019 11:14 3,6 C 2,8 C 2,2 C 98 % 990,3 hPa 0,0 l/m 0 min 2 min 32 W/m 29,0 km/h (5 Bft) 97,83 %
28.01.2019 11:16 3,6 C 2,8 C 2,2 C 98 % 990,3 hPa 0,0 l/m 0 min 2 min 33 W/m 22,5 km/h (4 Bft) 97,87 %
28.01.2019 11:18 3,6 C 2,8 C 2,2 C 98 % 990,3 hPa 0,0 l/m 0 min 2 min 36 W/m 35,4 km/h (5 Bft) 97,87 %
28.01.2019 11:20 3,6 C 2,8 C 2,2 C 98 % 990,4 hPa 0,0 l/m 0 min 2 min 37 W/m 25,7 km/h (4 Bft) 95,74 %
28.01.2019 11:22 3,6 C 2,8 C 2,2 C 98 % 990,5 hPa 0,0 l/m 0 min 2 min 32 W/m 25,7 km/h (4 Bft) 95,74 %
28.01.2019 11:24 3,6 C 2,8 C 2,2 C 98 % 990,5 hPa 0,0 l/m 0 min 2 min 30 W/m 32,2 km/h (5 Bft) 97,87 %
28.01.2019 11:26 3,6 C 2,8 C 2,2 C 98 % 990,5 hPa 0,0 l/m 0 min 2 min 30 W/m 35,4 km/h (5 Bft) 97,83 %
28.01.2019 11:28 3,6 C 2,8 C 2,2 C 98 % 990,6 hPa 0,0 l/m 0 min 2 min 33 W/m 32,2 km/h (5 Bft) 97,87 %
28.01.2019 11:30 3,6 C 2,8 C 2,2 C 98 % 990,6 hPa 0,0 l/m 0 min 2 min 36 W/m 19,3 km/h (3 Bft) 97,87 %
28.01.2019 11:32 3,5 C 2,8 C 2,2 C 98 % 990,7 hPa 0,0 l/m 0 min 2 min 40 W/m 19,3 km/h (3 Bft) 96,30 %
28.01.2019 11:34 3,5 C 2,8 C 2,2 C 98 % 990,8 hPa 0,0 l/m 0 min 2 min 37 W/m 22,5 km/h (4 Bft) 97,83 %
28.01.2019 11:36 3,6 C 2,8 C 2,2 C 98 % 990,8 hPa 0,0 l/m 0 min 2 min 34 W/m 25,7 km/h (4 Bft) 100,00 %
28.01.2019 11:38 3,6 C 2,8 C 2,2 C 98 % 990,8 hPa 0,0 l/m 0 min 2 min 30 W/m 29,0 km/h (5 Bft) 100,00 %
28.01.2019 11:40 3,5 C 2,8 C 2,2 C 98 % 990,9 hPa 0,0 l/m 0 min 2 min 29 W/m 29,0 km/h (5 Bft) 100,00 %
28.01.2019 11:42 3,5 C 2,8 C 2,2 C 98 % 990,9 hPa 0,0 l/m 0 min 2 min 29 W/m 22,5 km/h (4 Bft) 100,00 %
28.01.2019 11:44 3,5 C 2,8 C 2,8 C 98 % 991,0 hPa 0,0 l/m 0 min 2 min 33 W/m 22,5 km/h (4 Bft) 100,00 %
28.01.2019 11:46 3,6 C 2,8 C 2,8 C 98 % 991,0 hPa 0,0 l/m 0 min 2 min 38 W/m 29,0 km/h (5 Bft) 100,00 %
28.01.2019 11:48 3,6 C 2,8 C 2,8 C 98 % 991,1 hPa 0,2 l/m 0 min 2 min 41 W/m 19,3 km/h (3 Bft) 100,00 %
28.01.2019 11:50 3,6 C 2,8 C 2,8 C 98 % 991,0 hPa 0,0 l/m 0 min 2 min 41 W/m 22,5 km/h (4 Bft) 100,00 %
28.01.2019 11:52 3,6 C 2,8 C 2,8 C 98 % 991,2 hPa 0,0 l/m 0 min 2 min 40 W/m 22,5 km/h (4 Bft) 100,00 %
28.01.2019 11:54 3,6 C 2,8 C 2,8 C 98 % 991,2 hPa 0,0 l/m 0 min 2 min 45 W/m 25,7 km/h (4 Bft) 100,00 %
28.01.2019 11:56 3,6 C 2,8 C 2,8 C 98 % 991,2 hPa 0,0 l/m 0 min 2 min 57 W/m 38,6 km/h (5 Bft) 100,00 %
28.01.2019 11:58 3,6 C 2,8 C 2,8 C 98 % 991,3 hPa 0,0 l/m 0 min 2 min 72 W/m 25,7 km/h (4 Bft) 100,00 %
28.01.2019 12:00 3,6 C 3,3 C 2,8 C 98 % 991,3 hPa 0,0 l/m 0 min 2 min 67 W/m 25,7 km/h (4 Bft) 100,00 %
28.01.2019 12:02 3,7 C 2,8 C 2,8 C 98 % 991,3 hPa 0,0 l/m 0 min 2 min 60 W/m 19,3 km/h (3 Bft) 100,00 %
28.01.2019 12:04 3,7 C 3,3 C 2,8 C 98 % 991,5 hPa 0,0 l/m 0 min 2 min 58 W/m 25,7 km/h (4 Bft) 100,00 %
28.01.2019 12:08 3,7 C 2,8 C 2,8 C 98 % 991,5 hPa 0,0 l/m 0 min 4 min 63 W/m 32,2 km/h (5 Bft) 96,81 %
28.01.2019 12:10 3,6 C 2,8 C 2,8 C 98 % 991,5 hPa 0,0 l/m 0 min 2 min 60 W/m 29,0 km/h (5 Bft) 97,83 %
28.01.2019 12:12 3,6 C 2,8 C 2,8 C 98 % 991,5 hPa 0,0 l/m 0 min 2 min 61 W/m 29,0 km/h (5 Bft) 97,87 %
28.01.2019 12:14 3,6 C 2,8 C 2,8 C 98 % 991,6 hPa 0,2 l/m 0 min 2 min 66 W/m 19,3 km/h (3 Bft) 97,87 %
28.01.2019 12:16 3,6 C 3,3 C 2,8 C 98 % 991,6 hPa 0,0 l/m 0 min 2 min 78 W/m 32,2 km/h (5 Bft) 97,87 %
28.01.2019 12:18 3,6 C 3,3 C 2,8 C 98 % 991,7 hPa 0,0 l/m 0 min 2 min 79 W/m 19,3 km/h (3 Bft) 97,87 %
28.01.2019 12:20 3,6 C 3,3 C 2,8 C 98 % 991,7 hPa 0,0 l/m 0 min 2 min 81 W/m 22,5 km/h (4 Bft) 97,87 %
28.01.2019 12:22 3,7 C 3,3 C 2,8 C 98 % 991,7 hPa 0,0 l/m 0 min 2 min 70 W/m 32,2 km/h (5 Bft) 97,83 %
28.01.2019 12:24 3,6 C 2,8 C 2,8 C 98 % 991,7 hPa 0,0 l/m 0 min 2 min 74 W/m 45,1 km/h (6 Bft) 93,62 %
28.01.2019 12:26 3,6 C 2,8 C 2,8 C 98 % 991,8 hPa 0,0 l/m 0 min 2 min 82 W/m 29,0 km/h (5 Bft) 95,74 %
28.01.2019 12:28 3,6 C 2,8 C 2,8 C 98 % 991,9 hPa 0,0 l/m 0 min 2 min 82 W/m 38,6 km/h (5 Bft) 97,87 %
28.01.2019 12:30 3,6 C 2,8 C 2,8 C 98 % 991,9 hPa 0,0 l/m 0 min 2 min 75 W/m 19,3 km/h (3 Bft) 97,87 %
28.01.2019 12:32 3,6 C 2,8 C 2,8 C 98 % 991,9 hPa 0,0 l/m 0 min 2 min 76 W/m 22,5 km/h (4 Bft) 97,87 %
28.01.2019 12:34 3,6 C 2,8 C 2,8 C 98 % 992,0 hPa 0,0 l/m 0 min 2 min 78 W/m 25,7 km/h (4 Bft) 97,83 %
28.01.2019 12:36 3,6 C 2,8 C 2,8 C 98 % 992,0 hPa 0,0 l/m 0 min 2 min 88 W/m 32,2 km/h (5 Bft) 97,87 %
28.01.2019 12:38 3,6 C 2,8 C 2,8 C 98 % 992,0 hPa 0,0 l/m 0 min 2 min 88 W/m 32,2 km/h (5 Bft) 97,87 %
28.01.2019 12:40 3,6 C 2,8 C 2,8 C 98 % 992,0 hPa 0,0 l/m 0 min 2 min 92 W/m 19,3 km/h (3 Bft) 97,87 %
28.01.2019 12:42 3,6 C 2,8 C 2,8 C 98 % 992,2 hPa 0,0 l/m 0 min 2 min 74 W/m 29,0 km/h (5 Bft) 95,74 %
28.01.2019 12:44 3,6 C 2,8 C 2,8 C 98 % 992,1 hPa 0,0 l/m 0 min 2 min 72 W/m 32,2 km/h (5 Bft) 97,87 %
28.01.2019 12:46 3,6 C 3,3 C 2,8 C 98 % 992,2 hPa 0,0 l/m 0 min 2 min 85 W/m 32,2 km/h (5 Bft) 97,83 %
28.01.2019 12:48 3,6 C 2,8 C 2,8 C 98 % 992,1 hPa 0,0 l/m 0 min 2 min 81 W/m 29,0 km/h (5 Bft) 97,87 %
28.01.2019 12:50 3,6 C 2,8 C 2,8 C 98 % 992,3 hPa 0,0 l/m 0 min 2 min 71 W/m 29,0 km/h (5 Bft) 100,00 %
28.01.2019 12:52 3,6 C 2,8 C 2,8 C 98 % 992,3 hPa 0,0 l/m 0 min 2 min 57 W/m 19,3 km/h (3 Bft) 100,00 %
28.01.2019 12:54 3,6 C 3,3 C 2,8 C 98 % 992,3 hPa 0,0 l/m 0 min 2 min 66 W/m 16,1 km/h (3 Bft) 100,00 %
28.01.2019 12:56 3,6 C 2,8 C 2,8 C 98 % 992,4 hPa 0,0 l/m 0 min 2 min 66 W/m 32,2 km/h (5 Bft) 100,00 %
28.01.2019 12:58 3,6 C 2,8 C 2,8 C 98 % 992,4 hPa 0,0 l/m 0 min 2 min 59 W/m 38,6 km/h (5 Bft) 95,65 %
28.01.2019 13:00 3,6 C 2,8 C 2,8 C 97 % 992,5 hPa 0,0 l/m 0 min 2 min 61 W/m 22,5 km/h (4 Bft) 97,87 %
28.01.2019 13:02 3,6 C 2,8 C 2,8 C 98 % 992,5 hPa 0,0 l/m 0 min 2 min 60 W/m 22,5 km/h (4 Bft) 97,92 %
28.01.2019 13:04 3,6 C 2,8 C 2,8 C 98 % 992,6 hPa 0,0 l/m 0 min 2 min 61 W/m 22,5 km/h (4 Bft) 100,00 %
28.01.2019 13:06 3,7 C 2,8 C 2,8 C 98 % 992,6 hPa 0,0 l/m 0 min 2 min 62 W/m 22,5 km/h (4 Bft) 100,00 %
28.01.2019 13:08 3,6 C 2,8 C 2,8 C 98 % 992,6 hPa 0,0 l/m 0 min 2 min 64 W/m 32,2 km/h (5 Bft) 97,83 %
28.01.2019 13:10 3,7 C 2,8 C 2,8 C 98 % 992,7 hPa 0,0 l/m 0 min 2 min 74 W/m 22,5 km/h (4 Bft) 97,87 %
28.01.2019 13:12 3,7 C 2,8 C 2,8 C 98 % 992,8 hPa 0,0 l/m 0 min 2 min 73 W/m 29,0 km/h (5 Bft) 97,87 %
28.01.2019 13:14 3,6 C 2,8 C 2,2 C 98 % 992,9 hPa 0,0 l/m 0 min 2 min 70 W/m 41,8 km/h (6 Bft) 95,74 %
28.01.2019 13:16 3,6 C 2,8 C 2,2 C 97 % 993,0 hPa 0,0 l/m 0 min 2 min 67 W/m 32,2 km/h (5 Bft) 97,87 %
28.01.2019 13:18 3,6 C 2,8 C 2,2 C 97 % 993,0 hPa 0,0 l/m 0 min 2 min 64 W/m 19,3 km/h (3 Bft) 97,87 %
28.01.2019 13:20 3,6 C 2,8 C 2,8 C 97 % 993,0 hPa 0,0 l/m 0 min 2 min 62 W/m 22,5 km/h (4 Bft) 91,30 %
28.01.2019 13:22 3,6 C 2,8 C 2,2 C 97 % 993,1 hPa 0,0 l/m 0 min 2 min 48 W/m 29,0 km/h (5 Bft) 97,87 %
28.01.2019 13:24 3,6 C 2,8 C 2,2 C 97 % 993,0 hPa 0,0 l/m 0 min 2 min 58 W/m 38,6 km/h (5 Bft) 97,87 %
28.01.2019 13:26 3,5 C 2,8 C 2,2 C 97 % 993,2 hPa 0,0 l/m 0 min 2 min 64 W/m 38,6 km/h (5 Bft) 97,87 %
28.01.2019 13:28 3,5 C 2,8 C 2,2 C 97 % 993,2 hPa 0,0 l/m 0 min 2 min 66 W/m 41,8 km/h (6 Bft) 97,87 %
28.01.2019 13:30 3,4 C 2,8 C 2,2 C 97 % 993,2 hPa 0,0 l/m 0 min 2 min 74 W/m 61,2 km/h (7 Bft) 97,87 %
28.01.2019 13:32 3,4 C 2,8 C 2,2 C 97 % 993,3 hPa 0,0 l/m 0 min 2 min 81 W/m 35,4 km/h (5 Bft) 95,74 %
28.01.2019 13:34 3,4 C 2,8 C 2,2 C 97 % 993,3 hPa 0,2 l/m 0 min 2 min 82 W/m 48,3 km/h (6 Bft) 97,87 %
28.01.2019 13:36 3,4 C 2,8 C 2,2 C 97 % 993,4 hPa 0,0 l/m 0 min 2 min 78 W/m 41,8 km/h (6 Bft) 97,87 %
28.01.2019 13:38 3,4 C 2,8 C 2,2 C 97 % 993,4 hPa 0,0 l/m 0 min 2 min 77 W/m 35,4 km/h (5 Bft) 95,74 %
28.01.2019 13:40 3,4 C 2,8 C 2,2 C 97 % 993,4 hPa 0,0 l/m 0 min 2 min 79 W/m 41,8 km/h (6 Bft) 91,49 %
28.01.2019 13:42 3,4 C 2,8 C 2,2 C 97 % 993,5 hPa 0,0 l/m 0 min 2 min 84 W/m 45,1 km/h (6 Bft) 95,65 %
28.01.2019 13:44 3,4 C 2,8 C 2,2 C 97 % 993,5 hPa 0,0 l/m 0 min 2 min 73 W/m 48,3 km/h (6 Bft) 97,87 %
28.01.2019 13:46 3,4 C 2,8 C 2,2 C 97 % 993,5 hPa 0,0 l/m 0 min 2 min 73 W/m 25,7 km/h (4 Bft) 93,62 %
28.01.2019 13:48 3,4 C 2,8 C 2,2 C 97 % 993,5 hPa 0,0 l/m 0 min 2 min 66 W/m 32,2 km/h (5 Bft) 95,74 %
28.01.2019 13:50 3,4 C 2,8 C 2,2 C 97 % 993,6 hPa 0,0 l/m 0 min 2 min 62 W/m 35,4 km/h (5 Bft) 95,74 %
28.01.2019 13:52 3,4 C 2,8 C 2,2 C 97 % 993,6 hPa 0,0 l/m 0 min 2 min 66 W/m 32,2 km/h (5 Bft) 97,87 %
28.01.2019 13:54 3,4 C 2,8 C 2,2 C 97 % 993,7 hPa 0,0 l/m 0 min 2 min 82 W/m 48,3 km/h (6 Bft) 97,83 %
28.01.2019 13:56 3,4 C 2,8 C 2,2 C 97 % 993,7 hPa 0,0 l/m 0 min 2 min 89 W/m 45,1 km/h (6 Bft) 97,87 %
28.01.2019 13:58 3,4 C 2,8 C 2,2 C 97 % 993,8 hPa 0,0 l/m 0 min 2 min 98 W/m 32,2 km/h (5 Bft) 95,74 %
28.01.2019 14:00 3,4 C 2,8 C 2,2 C 97 % 993,8 hPa 0,0 l/m 0 min 2 min 98 W/m 38,6 km/h (5 Bft) 95,74 %
28.01.2019 14:02 3,4 C 2,8 C 2,2 C 97 % 993,9 hPa 0,0 l/m 0 min 2 min 114 W/m 38,6 km/h (5 Bft) 95,74 %
28.01.2019 14:04 3,4 C 2,8 C 2,2 C 97 % 994,0 hPa 0,0 l/m 0 min 2 min 120 W/m 45,1 km/h (6 Bft) 95,74 %
28.01.2019 14:06 3,4 C 2,8 C 2,2 C 97 % 994,0 hPa 0,0 l/m 0 min 2 min 124 W/m 48,3 km/h (6 Bft) 97,83 %
28.01.2019 14:08 3,4 C 2,8 C 2,2 C 97 % 994,1 hPa 0,0 l/m 0 min 2 min 124 W/m 22,5 km/h (4 Bft) 97,87 %
28.01.2019 14:10 3,5 C 2,8 C 2,8 C 97 % 994,1 hPa 0,0 l/m 0 min 2 min 133 W/m 29,0 km/h (5 Bft) 95,74 %
28.01.2019 14:12 3,5 C 3,3 C 2,8 C 97 % 994,1 hPa 0,0 l/m 0 min 2 min 140 W/m 32,2 km/h (5 Bft) 93,62 %
28.01.2019 14:14 3,6 C 3,3 C 2,8 C 96 % 994,2 hPa 0,0 l/m 0 min 2 min 146 W/m 29,0 km/h (5 Bft) 97,87 %
28.01.2019 14:16 3,6 C 3,3 C 2,8 C 96 % 994,3 hPa 0,0 l/m 0 min 2 min 138 W/m 29,0 km/h (5 Bft) 97,87 %
28.01.2019 14:18 3,6 C 3,3 C 2,8 C 96 % 994,2 hPa 0,0 l/m 0 min 2 min 127 W/m 35,4 km/h (5 Bft) 97,83 %
28.01.2019 14:20 3,7 C 2,8 C 2,8 C 96 % 994,3 hPa 0,0 l/m 0 min 2 min 90 W/m 22,5 km/h (4 Bft) 93,62 %
28.01.2019 14:22 3,7 C 2,8 C 2,2 C 96 % 994,4 hPa 0,0 l/m 0 min 2 min 44 W/m 19,3 km/h (3 Bft) 97,87 %
28.01.2019 14:24 3,7 C 2,8 C 2,2 C 96 % 994,3 hPa 0,0 l/m 0 min 2 min 29 W/m 22,5 km/h (4 Bft) 97,87 %
28.01.2019 14:26 3,7 C 2,8 C 2,2 C 96 % 994,5 hPa 0,0 l/m 0 min 2 min 24 W/m 25,7 km/h (4 Bft) 97,87 %
28.01.2019 14:28 3,6 C 2,8 C 2,2 C 96 % 994,5 hPa 0,2 l/m 0 min 2 min 32 W/m 48,3 km/h (6 Bft) 95,74 %
28.01.2019 14:30 3,6 C 2,8 C 2,2 C 96 % 994,5 hPa 0,0 l/m 0 min 2 min 55 W/m 38,6 km/h (5 Bft) 97,83 %
28.01.2019 14:32 3,5 C 2,8 C 2,2 C 96 % 994,5 hPa 0,0 l/m 0 min 2 min 89 W/m 25,7 km/h (4 Bft) 97,22 %
28.01.2019 14:34 3,5 C 2,8 C 2,2 C 96 % 994,5 hPa 0,0 l/m 0 min 2 min 90 W/m 41,8 km/h (6 Bft) 97,87 %
28.01.2019 14:36 3,5 C 2,8 C 2,2 C 96 % 994,5 hPa 0,0 l/m 0 min 2 min 83 W/m 32,2 km/h (5 Bft) 98,31 %
28.01.2019 14:38 3,5 C 2,8 C 2,2 C 96 % 994,6 hPa 0,0 l/m 0 min 2 min 92 W/m 32,2 km/h (5 Bft) 94,44 %
28.01.2019 14:40 3,5 C 2,8 C 2,2 C 96 % 994,6 hPa 0,0 l/m 0 min 2 min 103 W/m 32,2 km/h (5 Bft) 91,49 %
28.01.2019 14:42 3,4 C 2,8 C 2,2 C 96 % 994,7 hPa 0,0 l/m 0 min 2 min 91 W/m 19,3 km/h (3 Bft) 97,87 %
28.01.2019 14:44 3,5 C 2,8 C 2,2 C 96 % 994,7 hPa 0,0 l/m 0 min 2 min 84 W/m 29,0 km/h (5 Bft) 95,65 %
28.01.2019 14:46 3,5 C 2,8 C 2,2 C 96 % 994,9 hPa 0,0 l/m 0 min 2 min 78 W/m 25,7 km/h (4 Bft) 93,62 %
28.01.2019 14:48 3,5 C 2,8 C 2,2 C 96 % 994,9 hPa 0,0 l/m 0 min 2 min 59 W/m 22,5 km/h (4 Bft) 95,74 %
28.01.2019 14:50 3,5 C 2,8 C 2,2 C 96 % 994,9 hPa 0,0 l/m 0 min 2 min 56 W/m 29,0 km/h (5 Bft) 93,62 %
28.01.2019 14:52 3,5 C 2,8 C 2,2 C 96 % 995,0 hPa 0,0 l/m 0 min 2 min 60 W/m 22,5 km/h (4 Bft) 95,83 %
28.01.2019 14:54 3,5 C 2,8 C 2,2 C 96 % 995,0 hPa 0,0 l/m 0 min 2 min 65 W/m 32,2 km/h (5 Bft) 97,83 %
28.01.2019 14:56 3,5 C 2,8 C 2,2 C 96 % 995,0 hPa 0,0 l/m 0 min 2 min 55 W/m 32,2 km/h (5 Bft) 97,87 %
28.01.2019 14:58 3,5 C 2,8 C 2,2 C 96 % 995,2 hPa 0,0 l/m 0 min 2 min 45 W/m 25,7 km/h (4 Bft) 97,87 %
28.01.2019 15:00 3,5 C 2,8 C 2,2 C 96 % 995,0 hPa 0,0 l/m 0 min 2 min 58 W/m 25,7 km/h (4 Bft) 97,87 %
28.01.2019 15:02 3,5 C 2,8 C 2,2 C 96 % 995,1 hPa 0,0 l/m 0 min 2 min 54 W/m 38,6 km/h (5 Bft) 93,75 %
28.01.2019 15:04 3,5 C 2,8 C 2,2 C 96 % 995,1 hPa 0,0 l/m 0 min 2 min 53 W/m 38,6 km/h (5 Bft) 95,74 %
28.01.2019 15:06 3,4 C 2,8 C 2,2 C 96 % 995,2 hPa 0,0 l/m 0 min 2 min 52 W/m 32,2 km/h (5 Bft) 97,83 %
28.01.2019 15:08 3,4 C 2,8 C 2,2 C 96 % 995,2 hPa 0,0 l/m 0 min 2 min 49 W/m 19,3 km/h (3 Bft) 95,74 %
28.01.2019 15:10 3,4 C 2,8 C 2,2 C 96 % 995,2 hPa 0,0 l/m 0 min 2 min 41 W/m 25,7 km/h (4 Bft) 97,87 %
28.01.2019 15:12 3,4 C 2,8 C 2,2 C 96 % 995,3 hPa 0,0 l/m 0 min 2 min 43 W/m 19,3 km/h (3 Bft) 95,74 %
28.01.2019 15:14 3,4 C 2,8 C 2,2 C 96 % 995,4 hPa 0,0 l/m 0 min 2 min 42 W/m 22,5 km/h (4 Bft) 97,87 %
28.01.2019 15:16 3,4 C 2,8 C 2,2 C 96 % 995,4 hPa 0,0 l/m 0 min 0 min 42 W/m 22,5 km/h (4 Bft) 97,87 %
28.01.2019 15:18 3,4 C 2,8 C 2,2 C 96 % 995,4 hPa 0,0 l/m 0 min 0 min 40 W/m 22,5 km/h (4 Bft) 97,83 %
28.01.2019 15:20 3,4 C 2,8 C 2,2 C 96 % 995,5 hPa 0,0 l/m 0 min 0 min 39 W/m 22,5 km/h (4 Bft) 95,74 %
28.01.2019 15:22 3,4 C 2,8 C 2,2 C 96 % 995,5 hPa 0,0 l/m 0 min 0 min 36 W/m 19,3 km/h (3 Bft) 100,00 %
28.01.2019 15:24 3,4 C 2,8 C 2,2 C 96 % 995,6 hPa 0,0 l/m 0 min 0 min 36 W/m 22,5 km/h (4 Bft) 100,00 %
28.01.2019 15:26 3,4 C 2,8 C 2,2 C 96 % 995,7 hPa 0,0 l/m 0 min 0 min 41 W/m 29,0 km/h (5 Bft) 100,00 %
28.01.2019 15:28 3,4 C 2,8 C 2,2 C 96 % 995,7 hPa 0,0 l/m 0 min 0 min 49 W/m 19,3 km/h (3 Bft) 100,00 %
28.01.2019 15:30 3,4 C 2,8 C 2,2 C 95 % 995,8 hPa 0,0 l/m 0 min 0 min 52 W/m 16,1 km/h (3 Bft) 97,83 %
28.01.2019 15:32 3,4 C 2,8 C 2,2 C 95 % 995,8 hPa 0,0 l/m 0 min 0 min 55 W/m 22,5 km/h (4 Bft) 100,00 %
28.01.2019 15:34 3,4 C 2,8 C 2,2 C 95 % 995,8 hPa 0,0 l/m 0 min 0 min 56 W/m 25,7 km/h (4 Bft) 100,00 %
28.01.2019 15:36 3,4 C 2,8 C 2,2 C 95 % 996,0 hPa 0,0 l/m 0 min 0 min 58 W/m 25,7 km/h (4 Bft) 100,00 %
28.01.2019 15:38 3,4 C 2,8 C 2,2 C 95 % 996,0 hPa 0,0 l/m 0 min 0 min 62 W/m 25,7 km/h (4 Bft) 97,87 %
28.01.2019 15:40 3,4 C 2,8 C 2,2 C 95 % 996,0 hPa 0,0 l/m 0 min 0 min 67 W/m 32,2 km/h (5 Bft) 100,00 %
28.01.2019 15:42 3,4 C 2,8 C 2,2 C 95 % 996,0 hPa 0,0 l/m 0 min 0 min 70 W/m 25,7 km/h (4 Bft) 100,00 %
28.01.2019 15:44 3,5 C 2,8 C 2,2 C 95 % 996,1 hPa 0,0 l/m 0 min 0 min 71 W/m 41,8 km/h (6 Bft) 100,00 %
28.01.2019 15:46 3,5 C 2,8 C 2,2 C 95 % 996,1 hPa 0,0 l/m 0 min 0 min 68 W/m 29,0 km/h (5 Bft) 100,00 %
28.01.2019 15:48 3,5 C 2,8 C 2,2 C 95 % 996,2 hPa 0,0 l/m 0 min 0 min 69 W/m 22,5 km/h (4 Bft) 97,87 %
28.01.2019 15:50 3,6 C 2,8 C 2,2 C 94 % 996,1 hPa 0,0 l/m 0 min 0 min 67 W/m 19,3 km/h (3 Bft) 100,00 %
28.01.2019 15:52 3,6 C 2,8 C 2,2 C 94 % 996,2 hPa 0,0 l/m 0 min 0 min 64 W/m 25,7 km/h (4 Bft) 100,00 %
28.01.2019 15:54 3,6 C 2,8 C 2,2 C 94 % 996,2 hPa 0,0 l/m 0 min 0 min 63 W/m 32,2 km/h (5 Bft) 100,00 %
28.01.2019 15:56 3,6 C 2,8 C 2,2 C 94 % 996,2 hPa 0,0 l/m 0 min 0 min 60 W/m 32,2 km/h (5 Bft) 100,00 %
28.01.2019 15:58 3,6 C 2,8 C 2,2 C 94 % 996,3 hPa 0,0 l/m 0 min 0 min 62 W/m 35,4 km/h (5 Bft) 100,00 %
28.01.2019 16:00 3,6 C 2,8 C 2,2 C 94 % 996,3 hPa 0,0 l/m 0 min 0 min 69 W/m 32,2 km/h (5 Bft) 100,00 %
28.01.2019 16:02 3,6 C 3,3 C 2,2 C 93 % 996,4 hPa 0,0 l/m 0 min 0 min 74 W/m 25,7 km/h (4 Bft) 95,83 %
28.01.2019 16:04 3,7 C 3,3 C 2,2 C 93 % 996,4 hPa 0,0 l/m 0 min 0 min 78 W/m 29,0 km/h (5 Bft) 100,00 %
28.01.2019 16:06 3,7 C 3,3 C 2,2 C 93 % 996,5 hPa 0,0 l/m 0 min 0 min 79 W/m 45,1 km/h (6 Bft) 93,62 %
28.01.2019 16:08 3,7 C 3,3 C 2,2 C 93 % 996,5 hPa 0,0 l/m 0 min 0 min 71 W/m 35,4 km/h (5 Bft) 100,00 %
28.01.2019 16:10 3,8 C 3,3 C 2,2 C 92 % 996,5 hPa 0,0 l/m 0 min 0 min 69 W/m 38,6 km/h (5 Bft) 97,87 %
28.01.2019 16:12 3,8 C 3,3 C 2,2 C 92 % 996,6 hPa 0,0 l/m 0 min 0 min 68 W/m 19,3 km/h (3 Bft) 100,00 %
28.01.2019 16:14 3,8 C 3,3 C 2,2 C 91 % 996,6 hPa 0,0 l/m 0 min 0 min 70 W/m 29,0 km/h (5 Bft) 100,00 %
28.01.2019 16:16 3,8 C 3,3 C 2,2 C 91 % 996,6 hPa 0,0 l/m 2 min 0 min 74 W/m 29,0 km/h (5 Bft) 100,00 %
28.01.2019 16:18 3,8 C 3,3 C 2,2 C 91 % 996,6 hPa 0,0 l/m 2 min 0 min 77 W/m 22,5 km/h (4 Bft) 100,00 %
28.01.2019 16:20 3,9 C 2,8 C 2,2 C 90 % 996,7 hPa 0,0 l/m 2 min 0 min 81 W/m 29,0 km/h (5 Bft) 100,00 %
28.01.2019 16:22 3,9 C 2,8 C 2,2 C 90 % 996,7 hPa 0,0 l/m 2 min 0 min 84 W/m 38,6 km/h (5 Bft) 97,87 %
28.01.2019 16:24 3,9 C 3,3 C 2,2 C 90 % 996,8 hPa 0,0 l/m 2 min 0 min 84 W/m 22,5 km/h (4 Bft) 100,00 %
28.01.2019 16:26 3,9 C 3,3 C 2,2 C 89 % 996,8 hPa 0,0 l/m 2 min 0 min 83 W/m 16,1 km/h (3 Bft) 97,87 %
28.01.2019 16:28 3,9 C 3,3 C 2,2 C 89 % 996,9 hPa 0,0 l/m 2 min 0 min 83 W/m 22,5 km/h (4 Bft) 97,83 %
28.01.2019 16:30 3,9 C 3,3 C 2,2 C 89 % 996,9 hPa 0,0 l/m 2 min 0 min 83 W/m 29,0 km/h (5 Bft) 97,87 %
28.01.2019 16:32 4,0 C 3,3 C 2,2 C 89 % 997,0 hPa 0,0 l/m 2 min 0 min 75 W/m 22,5 km/h (4 Bft) 97,92 %
28.01.2019 16:34 4,0 C 2,8 C 2,2 C 88 % 997,0 hPa 0,0 l/m 2 min 0 min 70 W/m 25,7 km/h (4 Bft) 95,74 %
28.01.2019 16:36 4,0 C 2,8 C 2,2 C 88 % 997,1 hPa 0,0 l/m 2 min 0 min 63 W/m 45,1 km/h (6 Bft) 95,74 %
28.01.2019 16:38 4,0 C 2,8 C 2,2 C 87 % 997,1 hPa 0,0 l/m 2 min 0 min 54 W/m 16,1 km/h (3 Bft) 97,83 %
28.01.2019 16:40 4,0 C 2,8 C 2,2 C 87 % 997,1 hPa 0,0 l/m 2 min 0 min 47 W/m 19,3 km/h (3 Bft) 95,74 %
28.01.2019 16:42 4,0 C 2,8 C 2,2 C 87 % 997,2 hPa 0,0 l/m 2 min 0 min 43 W/m 22,5 km/h (4 Bft) 93,62 %
28.01.2019 16:44 4,0 C 2,8 C 2,2 C 87 % 997,2 hPa 0,0 l/m 2 min 0 min 46 W/m 25,7 km/h (4 Bft) 95,74 %
28.01.2019 16:46 4,0 C 2,8 C 2,2 C 87 % 997,3 hPa 0,0 l/m 2 min 0 min 44 W/m 25,7 km/h (4 Bft) 95,74 %
28.01.2019 16:48 3,9 C 2,8 C 2,2 C 87 % 997,4 hPa 0,0 l/m 2 min 0 min 35 W/m 22,5 km/h (4 Bft) 93,62 %
28.01.2019 16:50 3,9 C 2,8 C 2,2 C 86 % 997,4 hPa 0,0 l/m 2 min 0 min 31 W/m 38,6 km/h (5 Bft) 97,87 %
28.01.2019 16:52 3,9 C 2,8 C 1,7 C 86 % 997,5 hPa 0,0 l/m 2 min 0 min 30 W/m 29,0 km/h (5 Bft) 95,65 %
28.01.2019 16:54 3,9 C 2,8 C 1,7 C 86 % 997,6 hPa 0,0 l/m 2 min 0 min 25 W/m 25,7 km/h (4 Bft) 95,74 %
28.01.2019 16:56 3,9 C 2,8 C 1,7 C 85 % 997,5 hPa 0,0 l/m 2 min 0 min 20 W/m 19,3 km/h (3 Bft) 95,74 %
28.01.2019 16:58 3,9 C 2,8 C 1,7 C 85 % 997,6 hPa 0,0 l/m 0 min 0 min 16 W/m 29,0 km/h (5 Bft) 95,74 %
28.01.2019 17:00 3,9 C 2,8 C 1,7 C 85 % 997,7 hPa 0,0 l/m 0 min 0 min 14 W/m 19,3 km/h (3 Bft) 95,74 %
28.01.2019 17:02 3,9 C 2,8 C 1,7 C 85 % 997,6 hPa 0,0 l/m 0 min 0 min 12 W/m 35,4 km/h (5 Bft) 93,62 %
28.01.2019 17:04 3,8 C 2,2 C 1,7 C 85 % 997,7 hPa 0,0 l/m 0 min 0 min 12 W/m 35,4 km/h (5 Bft) 95,74 %
28.01.2019 17:06 3,8 C 2,8 C 1,7 C 85 % 997,7 hPa 0,0 l/m 0 min 0 min 11 W/m 48,3 km/h (6 Bft) 95,74 %
28.01.2019 17:08 3,8 C 2,8 C 1,7 C 85 % 997,7 hPa 0,0 l/m 0 min 0 min 11 W/m 35,4 km/h (5 Bft) 95,74 %
28.01.2019 17:10 3,8 C 2,8 C 1,7 C 85 % 997,8 hPa 0,0 l/m 0 min 0 min 10 W/m 22,5 km/h (4 Bft) 95,74 %
28.01.2019 17:12 3,8 C 2,8 C 1,7 C 84 % 997,8 hPa 0,0 l/m 0 min 0 min 7 W/m 19,3 km/h (3 Bft) 93,62 %
28.01.2019 17:14 3,8 C 2,8 C 1,7 C 84 % 997,9 hPa 0,0 l/m 0 min 0 min 7 W/m 25,7 km/h (4 Bft) 93,48 %
28.01.2019 17:16 3,8 C 2,8 C 1,7 C 85 % 997,9 hPa 0,0 l/m 0 min 0 min 9 W/m 25,7 km/h (4 Bft) 93,62 %
28.01.2019 17:18 3,8 C 2,2 C 1,7 C 84 % 997,9 hPa 0,0 l/m 0 min 0 min 9 W/m 22,5 km/h (4 Bft) 91,49 %
28.01.2019 17:20 3,8 C 2,2 C 1,7 C 84 % 998,0 hPa 0,0 l/m 0 min 0 min 8 W/m 22,5 km/h (4 Bft) 93,62 %
28.01.2019 17:22 3,8 C 2,2 C 1,7 C 84 % 998,1 hPa 0,0 l/m 0 min 0 min 6 W/m 22,5 km/h (4 Bft) 93,62 %
28.01.2019 17:24 3,8 C 2,2 C 1,7 C 85 % 998,1 hPa 0,0 l/m 0 min 0 min 1 W/m 19,3 km/h (3 Bft) 91,49 %
28.01.2019 17:26 3,8 C 2,2 C 1,7 C 85 % 998,1 hPa 0,0 l/m 0 min 0 min 0 W/m 12,9 km/h (3 Bft) 95,65 %
28.01.2019 17:28 3,8 C 2,2 C 1,7 C 85 % 998,2 hPa 0,0 l/m 0 min 0 min 0 W/m 19,3 km/h (3 Bft) 95,74 %
28.01.2019 17:30 3,8 C 2,2 C 1,7 C 85 % 998,2 hPa 0,0 l/m 0 min 0 min 0 W/m 25,7 km/h (4 Bft) 95,74 %
28.01.2019 17:32 3,7 C 2,2 C 1,7 C 85 % 998,3 hPa 0,0 l/m 0 min 0 min 0 W/m 19,3 km/h (3 Bft) 91,67 %
28.01.2019 17:34 3,7 C 2,2 C 1,7 C 85 % 998,3 hPa 0,0 l/m 0 min 0 min 0 W/m 19,3 km/h (3 Bft) 93,62 %
28.01.2019 17:36 3,7 C 2,2 C 1,7 C 85 % 998,3 hPa 0,0 l/m 0 min 0 min 0 W/m 22,5 km/h (4 Bft) 95,65 %
28.01.2019 17:38 3,7 C 2,2 C 1,7 C 85 % 998,3 hPa 0,0 l/m 0 min 0 min 0 W/m 29,0 km/h (5 Bft) 93,75 %
28.01.2019 17:40 3,7 C 2,2 C 1,7 C 84 % 998,4 hPa 0,0 l/m 0 min 0 min 0 W/m 12,9 km/h (3 Bft) 97,87 %
28.01.2019 17:42 3,7 C 2,2 C 1,7 C 84 % 998,4 hPa 0,0 l/m 0 min 0 min 0 W/m 16,1 km/h (3 Bft) 97,87 %
28.01.2019 17:44 3,7 C 2,2 C 1,7 C 85 % 998,4 hPa 0,0 l/m 0 min 0 min 0 W/m 29,0 km/h (5 Bft) 97,87 %
28.01.2019 17:46 3,6 C 2,2 C 1,7 C 84 % 998,5 hPa 0,0 l/m 0 min 0 min 0 W/m 29,0 km/h (5 Bft) 97,87 %
28.01.2019 17:48 3,6 C 2,2 C 1,1 C 84 % 998,5 hPa 0,0 l/m 0 min 0 min 0 W/m 19,3 km/h (3 Bft) 97,83 %
28.01.2019 17:50 3,6 C 2,2 C 1,1 C 84 % 998,6 hPa 0,0 l/m 0 min 0 min 0 W/m 12,9 km/h (3 Bft) 97,87 %
28.01.2019 17:52 3,6 C 2,2 C 1,1 C 85 % 998,7 hPa 0,0 l/m 0 min 0 min 0 W/m 12,9 km/h (3 Bft) 97,87 %
28.01.2019 17:54 3,5 C 2,2 C 1,1 C 85 % 998,7 hPa 0,0 l/m 0 min 0 min 0 W/m 16,1 km/h (3 Bft) 97,87 %
28.01.2019 17:56 3,5 C 2,2 C 1,1 C 85 % 998,8 hPa 0,0 l/m 0 min 0 min 0 W/m 12,9 km/h (3 Bft) 100,00 %
28.01.2019 17:58 3,4 C 2,2 C 1,1 C 85 % 998,8 hPa 0,0 l/m 0 min 0 min 0 W/m 6,4 km/h (2 Bft) 100,00 %
28.01.2019 18:00 3,4 C 2,2 C 1,1 C 85 % 998,9 hPa 0,0 l/m 0 min 0 min 0 W/m 12,9 km/h (3 Bft) 100,00 %
28.01.2019 18:02 3,4 C 2,2 C 1,1 C 85 % 998,9 hPa 0,0 l/m 0 min 0 min 0 W/m 9,7 km/h (2 Bft) 95,83 %
28.01.2019 18:04 3,4 C 2,2 C 1,1 C 85 % 999,0 hPa 0,0 l/m 0 min 0 min 0 W/m 9,7 km/h (2 Bft) 100,00 %
28.01.2019 18:08 3,3 C 2,8 C 1,1 C 85 % 999,1 hPa 0,0 l/m 0 min 0 min 0 W/m 12,9 km/h (3 Bft) 100,00 %
28.01.2019 18:10 3,3 C 2,2 C 1,1 C 86 % 999,1 hPa 0,0 l/m 0 min 0 min 0 W/m 6,4 km/h (2 Bft) 97,83 %
28.01.2019 18:12 3,3 C 2,2 C 1,1 C 86 % 999,1 hPa 0,0 l/m 0 min 0 min 0 W/m 9,7 km/h (2 Bft) 97,87 %
28.01.2019 18:14 3,3 C 2,2 C 1,1 C 86 % 999,1 hPa 0,0 l/m 0 min 0 min 0 W/m 9,7 km/h (2 Bft) 100,00 %
28.01.2019 18:16 3,2 C 2,2 C 1,1 C 86 % 999,1 hPa 0,0 l/m 0 min 0 min 0 W/m 6,4 km/h (2 Bft) 100,00 %
28.01.2019 18:18 3,2 C 2,2 C 1,1 C 86 % 999,1 hPa 0,0 l/m 0 min 0 min 0 W/m 12,9 km/h (3 Bft) 100,00 %
28.01.2019 18:20 3,2 C 2,2 C 1,1 C 86 % 999,1 hPa 0,0 l/m 0 min 0 min 0 W/m 9,7 km/h (2 Bft) 97,87 %
28.01.2019 18:22 3,2 C 2,2 C 1,1 C 86 % 999,2 hPa 0,0 l/m 0 min 0 min 0 W/m 12,9 km/h (3 Bft) 100,00 %
28.01.2019 18:24 3,1 C 2,2 C 1,1 C 86 % 999,2 hPa 0,0 l/m 0 min 0 min 0 W/m 16,1 km/h (3 Bft) 100,00 %
28.01.2019 18:26 3,1 C 2,2 C 1,1 C 86 % 999,2 hPa 0,0 l/m 0 min 0 min 0 W/m 16,1 km/h (3 Bft) 100,00 %
28.01.2019 18:28 3,1 C 2,2 C 1,1 C 86 % 999,3 hPa 0,0 l/m 0 min 0 min 0 W/m 16,1 km/h (3 Bft) 95,74 %
28.01.2019 18:30 3,1 C 2,2 C 1,1 C 87 % 999,3 hPa 0,0 l/m 0 min 0 min 0 W/m 12,9 km/h (3 Bft) 95,74 %
28.01.2019 18:32 3,1 C 2,2 C 1,1 C 87 % 999,3 hPa 0,0 l/m 0 min 0 min 0 W/m 16,1 km/h (3 Bft) 97,92 %
28.01.2019 18:34 3,1 C 2,2 C 1,1 C 87 % 999,4 hPa 0,0 l/m 0 min 0 min 0 W/m 16,1 km/h (3 Bft) 95,65 %
28.01.2019 18:36 3,0 C 2,2 C 1,1 C 87 % 999,4 hPa 0,0 l/m 0 min 0 min 0 W/m 16,1 km/h (3 Bft) 100,00 %
28.01.2019 18:38 3,0 C 2,2 C 1,1 C 88 % 999,4 hPa 0,0 l/m 0 min 0 min 0 W/m 12,9 km/h (3 Bft) 97,87 %
28.01.2019 18:40 3,0 C 2,2 C 1,1 C 88 % 999,5 hPa 0,0 l/m 0 min 0 min 0 W/m 12,9 km/h (3 Bft) 97,87 %
28.01.2019 18:42 2,9 C 2,2 C 1,1 C 88 % 999,5 hPa 0,0 l/m 0 min 0 min 0 W/m 9,7 km/h (2 Bft) 97,87 %
28.01.2019 18:44 2,9 C 2,2 C 1,1 C 89 % 999,5 hPa 0,0 l/m 0 min 0 min 0 W/m 16,1 km/h (3 Bft) 100,00 %
28.01.2019 18:46 2,9 C 2,2 C 1,1 C 89 % 999,6 hPa 0,0 l/m 0 min 0 min 0 W/m 16,1 km/h (3 Bft) 100,00 %
28.01.2019 18:48 2,9 C 2,2 C 1,1 C 89 % 999,6 hPa 0,0 l/m 0 min 0 min 0 W/m 16,1 km/h (3 Bft) 91,49 %
28.01.2019 18:50 2,9 C 2,2 C 1,1 C 89 % 999,7 hPa 0,0 l/m 0 min 0 min 0 W/m 12,9 km/h (3 Bft) 100,00 %
28.01.2019 18:52 2,9 C 2,2 C 1,1 C 89 % 999,7 hPa 0,0 l/m 0 min 0 min 0 W/m 12,9 km/h (3 Bft) 97,87 %
28.01.2019 18:54 2,9 C 2,2 C 1,1 C 89 % 999,7 hPa 0,0 l/m 0 min 0 min 0 W/m 16,1 km/h (3 Bft) 87,23 %
28.01.2019 18:56 2,9 C 2,2 C 1,1 C 90 % 999,7 hPa 0,0 l/m 0 min 0 min 0 W/m 12,9 km/h (3 Bft) 91,49 %
28.01.2019 18:58 2,9 C 2,2 C 1,1 C 90 % 999,8 hPa 0,0 l/m 0 min 0 min 0 W/m 16,1 km/h (3 Bft) 91,30 %
28.01.2019 19:00 2,9 C 2,2 C 1,1 C 90 % 999,9 hPa 0,0 l/m 0 min 0 min 0 W/m 12,9 km/h (3 Bft) 93,62 %
28.01.2019 19:02 2,9 C 2,2 C 1,1 C 90 % 1000,0 hPa 0,0 l/m 0 min 0 min 0 W/m 16,1 km/h (3 Bft) 100,00 %
28.01.2019 19:04 2,8 C 2,2 C 1,1 C 90 % 1000,1 hPa 0,0 l/m 0 min 0 min 0 W/m 12,9 km/h (3 Bft) 95,74 %
28.01.2019 19:06 2,8 C 2,2 C 1,1 C 90 % 1000,2 hPa 0,0 l/m 0 min 0 min 0 W/m 12,9 km/h (3 Bft) 95,74 %
28.01.2019 19:08 2,8 C 2,2 C 1,1 C 90 % 1000,2 hPa 0,0 l/m 0 min 0 min 0 W/m 16,1 km/h (3 Bft) 91,30 %
28.01.2019 19:10 2,8 C 2,2 C 1,1 C 90 % 1000,3 hPa 0,0 l/m 0 min 0 min 0 W/m 19,3 km/h (3 Bft) 95,74 %
28.01.2019 19:12 2,8 C 2,2 C 1,1 C 91 % 1000,3 hPa 0,0 l/m 0 min 0 min 0 W/m 9,7 km/h (2 Bft) 85,11 %
28.01.2019 19:14 2,8 C 2,2 C 1,1 C 90 % 1000,3 hPa 0,0 l/m 0 min 0 min 0 W/m 12,9 km/h (3 Bft) 93,62 %
28.01.2019 19:16 2,8 C 2,2 C 1,1 C 91 % 1000,3 hPa 0,0 l/m 0 min 0 min 0 W/m 19,3 km/h (3 Bft) 97,87 %
28.01.2019 19:18 2,7 C 2,2 C 1,1 C 91 % 1000,3 hPa 0,0 l/m 0 min 0 min 0 W/m 12,9 km/h (3 Bft) 82,98 %
28.01.2019 19:20 2,7 C 2,2 C 1,1 C 91 % 1000,3 hPa 0,0 l/m 0 min 0 min 0 W/m 12,9 km/h (3 Bft) 89,13 %
28.01.2019 19:22 2,7 C 2,2 C 1,1 C 91 % 1000,3 hPa 0,0 l/m 0 min 0 min 0 W/m 12,9 km/h (3 Bft) 87,23 %
28.01.2019 19:24 2,7 C 1,7 C 1,1 C 91 % 1000,3 hPa 0,0 l/m 0 min 0 min 0 W/m 12,9 km/h (3 Bft) 82,98 %
28.01.2019 19:26 2,7 C 1,7 C 1,1 C 91 % 1000,3 hPa 0,0 l/m 0 min 0 min 0 W/m 12,9 km/h (3 Bft) 89,36 %
28.01.2019 19:28 2,6 C 1,7 C 1,1 C 91 % 1000,3 hPa 0,0 l/m 0 min 0 min 0 W/m 16,1 km/h (3 Bft) 82,98 %
28.01.2019 19:30 2,6 C 1,7 C 1,1 C 91 % 1000,4 hPa 0,0 l/m 0 min 0 min 0 W/m 22,5 km/h (4 Bft) 80,85 %
28.01.2019 19:32 2,6 C 1,7 C 1,1 C 91 % 1000,4 hPa 0,0 l/m 0 min 0 min 0 W/m 9,7 km/h (2 Bft) 80,56 %
28.01.2019 19:34 2,5 C 1,7 C 0,6 C 91 % 1000,4 hPa 0,0 l/m 0 min 0 min 0 W/m 16,1 km/h (3 Bft) 87,23 %
28.01.2019 19:36 2,4 C 1,7 C 0,6 C 91 % 1000,4 hPa 0,0 l/m 0 min 0 min 0 W/m 9,7 km/h (2 Bft) 87,93 %
28.01.2019 19:38 2,4 C 1,7 C 0,6 C 91 % 1000,5 hPa 0,0 l/m 0 min 0 min 0 W/m 16,1 km/h (3 Bft) 91,67 %
28.01.2019 19:40 2,4 C 1,7 C 0,6 C 91 % 1000,5 hPa 0,0 l/m 0 min 0 min 0 W/m 12,9 km/h (3 Bft) 93,62 %
28.01.2019 19:42 2,3 C 1,1 C 0,6 C 91 % 1000,6 hPa 0,0 l/m 0 min 0 min 0 W/m 12,9 km/h (3 Bft) 78,72 %
28.01.2019 19:44 2,3 C 1,1 C 0,6 C 91 % 1000,8 hPa 0,0 l/m 0 min 0 min 0 W/m 16,1 km/h (3 Bft) 82,98 %
28.01.2019 19:46 2,3 C 1,1 C 0,6 C 91 % 1000,7 hPa 0,0 l/m 0 min 0 min 0 W/m 12,9 km/h (3 Bft) 82,61 %
28.01.2019 19:48 2,2 C 1,1 C 0,6 C 91 % 1000,6 hPa 0,0 l/m 0 min 0 min 0 W/m 12,9 km/h (3 Bft) 91,49 %
28.01.2019 19:50 2,2 C 1,1 C 0,6 C 91 % 1000,7 hPa 0,0 l/m 0 min 0 min 0 W/m 12,9 km/h (3 Bft) 85,11 %
28.01.2019 19:52 2,2 C 1,1 C 0,6 C 91 % 1000,7 hPa 0,0 l/m 0 min 0 min 0 W/m 16,1 km/h (3 Bft) 80,85 %
28.01.2019 19:54 2,1 C 1,1 C 0,6 C 92 % 1000,7 hPa 0,0 l/m 0 min 0 min 0 W/m 22,5 km/h (4 Bft) 85,11 %
28.01.2019 19:56 2,1 C 1,1 C 0,6 C 92 % 1000,9 hPa 0,0 l/m 0 min 0 min 0 W/m 12,9 km/h (3 Bft) 82,98 %
28.01.2019 19:58 2,0 C 1,1 C 0,6 C 92 % 1000,7 hPa 0,0 l/m 0 min 0 min 0 W/m 16,1 km/h (3 Bft) 69,57 %
28.01.2019 20:00 2,0 C 1,1 C 0,6 C 92 % 1000,8 hPa 0,0 l/m 0 min 0 min 0 W/m 19,3 km/h (3 Bft) 76,60 %
28.01.2019 20:02 1,9 C 1,1 C 0,6 C 92 % 1000,9 hPa 0,0 l/m 0 min 0 min 0 W/m 16,1 km/h (3 Bft) 82,98 %
28.01.2019 20:04 1,9 C 1,1 C 0,6 C 92 % 1000,9 hPa 0,0 l/m 0 min 0 min 0 W/m 16,1 km/h (3 Bft) 80,85 %
28.01.2019 20:06 1,9 C 1,1 C 0,6 C 92 % 1001,0 hPa 0,0 l/m 0 min 0 min 0 W/m 12,9 km/h (3 Bft) 84,48 %
28.01.2019 20:08 1,8 C 1,1 C 0,6 C 92 % 1001,0 hPa 0,0 l/m 0 min 0 min 0 W/m 19,3 km/h (3 Bft) 87,50 %
28.01.2019 20:10 1,8 C 1,1 C 0,6 C 92 % 1001,0 hPa 0,0 l/m 0 min 0 min 0 W/m 16,1 km/h (3 Bft) 93,33 %
28.01.2019 20:12 1,8 C 1,1 C 0,6 C 92 % 1001,0 hPa 0,0 l/m 0 min 0 min 0 W/m 12,9 km/h (3 Bft) 84,78 %
28.01.2019 20:14 1,8 C 1,1 C 0,6 C 92 % 1001,1 hPa 0,0 l/m 0 min 0 min 0 W/m 16,1 km/h (3 Bft) 91,49 %
28.01.2019 20:16 1,8 C 1,1 C 0,0 C 92 % 1001,1 hPa 0,0 l/m 0 min 0 min 0 W/m 22,5 km/h (4 Bft) 89,36 %
28.01.2019 20:18 1,7 C 1,1 C 0,0 C 92 % 1001,2 hPa 0,0 l/m 0 min 0 min 0 W/m 16,1 km/h (3 Bft) 93,62 %
28.01.2019 20:20 1,7 C 1,1 C 0,0 C 92 % 1001,2 hPa 0,0 l/m 0 min 0 min 0 W/m 19,3 km/h (3 Bft) 91,49 %
28.01.2019 20:22 1,7 C 1,1 C 0,6 C 92 % 1001,2 hPa 0,0 l/m 0 min 0 min 0 W/m 16,1 km/h (3 Bft) 97,83 %
28.01.2019 20:24 1,7 C 1,1 C 0,0 C 92 % 1001,2 hPa 0,0 l/m 0 min 0 min 0 W/m 12,9 km/h (3 Bft) 93,62 %
28.01.2019 20:26 1,7 C 1,1 C 0,0 C 93 % 1001,3 hPa 0,0 l/m 0 min 0 min 0 W/m 16,1 km/h (3 Bft) 95,74 %
28.01.2019 20:28 1,6 C 1,1 C 0,0 C 93 % 1001,3 hPa 0,0 l/m 0 min 0 min 0 W/m 25,7 km/h (4 Bft) 93,62 %
28.01.2019 20:30 1,6 C 1,1 C 0,0 C 93 % 1001,3 hPa 0,0 l/m 0 min 0 min 0 W/m 16,1 km/h (3 Bft) 91,49 %
28.01.2019 20:32 1,6 C 1,1 C 0,0 C 93 % 1001,3 hPa 0,0 l/m 0 min 0 min 0 W/m 19,3 km/h (3 Bft) 93,62 %
28.01.2019 20:34 1,6 C 1,1 C 0,0 C 93 % 1001,3 hPa 0,0 l/m 0 min 0 min 0 W/m 16,1 km/h (3 Bft) 93,48 %
28.01.2019 20:36 1,6 C 0,6 C 0,0 C 93 % 1001,4 hPa 0,0 l/m 0 min 0 min 0 W/m 16,1 km/h (3 Bft) 100,00 %
28.01.2019 20:38 1,6 C 0,6 C 0,0 C 93 % 1001,4 hPa 0,0 l/m 0 min 0 min 0 W/m 12,9 km/h (3 Bft) 95,74 %
28.01.2019 20:40 1,6 C 0,6 C 0,0 C 93 % 1001,5 hPa 0,0 l/m 0 min 0 min 0 W/m 12,9 km/h (3 Bft) 97,87 %
28.01.2019 20:42 1,6 C 1,1 C 0,0 C 93 % 1001,6 hPa 0,0 l/m 0 min 0 min 0 W/m 22,5 km/h (4 Bft) 95,74 %
28.01.2019 20:44 1,6 C 1,1 C 0,6 C 93 % 1001,5 hPa 0,0 l/m 0 min 0 min 0 W/m 32,2 km/h (5 Bft) 93,62 %
28.01.2019 20:46 1,6 C 1,1 C 0,6 C 93 % 1001,6 hPa 0,0 l/m 0 min 0 min 0 W/m 16,1 km/h (3 Bft) 97,83 %
28.01.2019 20:48 1,6 C 1,1 C 0,6 C 93 % 1001,7 hPa 0,0 l/m 0 min 0 min 0 W/m 12,9 km/h (3 Bft) 97,87 %
28.01.2019 20:50 1,6 C 1,1 C 0,6 C 93 % 1001,7 hPa 0,0 l/m 0 min 0 min 0 W/m 12,9 km/h (3 Bft) 97,87 %
28.01.2019 20:52 1,6 C 1,1 C 0,6 C 93 % 1001,8 hPa 0,0 l/m 0 min 0 min 0 W/m 12,9 km/h (3 Bft) 97,87 %
28.01.2019 20:54 1,6 C 1,1 C 0,0 C 93 % 1001,8 hPa 0,0 l/m 0 min 0 min 0 W/m 19,3 km/h (3 Bft) 100,00 %
28.01.2019 20:56 1,6 C 1,1 C 0,6 C 93 % 1001,7 hPa 0,0 l/m 0 min 0 min 0 W/m 22,5 km/h (4 Bft) 97,83 %
28.01.2019 20:58 1,6 C 1,1 C 0,6 C 93 % 1001,8 hPa 0,0 l/m 0 min 0 min 0 W/m 19,3 km/h (3 Bft) 100,00 %
28.01.2019 21:00 1,6 C 1,1 C 0,6 C 94 % 1001,8 hPa 0,0 l/m 0 min 0 min 0 W/m 16,1 km/h (3 Bft) 97,87 %
28.01.2019 21:02 1,6 C 1,1 C 0,6 C 94 % 1001,9 hPa 0,0 l/m 0 min 0 min 0 W/m 9,7 km/h (2 Bft) 100,00 %
28.01.2019 21:04 1,6 C 1,1 C 0,6 C 94 % 1001,9 hPa 0,0 l/m 0 min 0 min 0 W/m 16,1 km/h (3 Bft) 100,00 %
28.01.2019 21:06 1,6 C 1,1 C 0,6 C 94 % 1001,9 hPa 0,0 l/m 0 min 0 min 0 W/m 9,7 km/h (2 Bft) 100,00 %
28.01.2019 21:08 1,6 C 1,1 C 0,6 C 94 % 1001,9 hPa 0,0 l/m 0 min 0 min 0 W/m 16,1 km/h (3 Bft) 100,00 %
28.01.2019 21:10 1,6 C 1,1 C 0,6 C 94 % 1001,9 hPa 0,0 l/m 0 min 0 min 0 W/m 12,9 km/h (3 Bft) 97,87 %
28.01.2019 21:12 1,6 C 1,1 C 0,6 C 94 % 1001,9 hPa 0,0 l/m 0 min 0 min 0 W/m 9,7 km/h (2 Bft) 100,00 %
28.01.2019 21:14 1,6 C 0,6 C 0,6 C 94 % 1001,9 hPa 0,0 l/m 0 min 0 min 0 W/m 9,7 km/h (2 Bft) 97,87 %
28.01.2019 21:16 1,6 C 0,6 C 0,6 C 94 % 1002,0 hPa 0,0 l/m 0 min 0 min 0 W/m 12,9 km/h (3 Bft) 100,00 %
28.01.2019 21:18 1,5 C 0,6 C 0,0 C 94 % 1001,9 hPa 0,0 l/m 0 min 0 min 0 W/m 12,9 km/h (3 Bft) 100,00 %
28.01.2019 21:20 1,5 C 0,6 C 0,0 C 94 % 1002,0 hPa 0,0 l/m 0 min 0 min 0 W/m 9,7 km/h (2 Bft) 100,00 %
28.01.2019 21:22 1,5 C 0,6 C 0,0 C 94 % 1002,0 hPa 0,0 l/m 0 min 0 min 0 W/m 16,1 km/h (3 Bft) 100,00 %
28.01.2019 21:24 1,4 C 0,6 C 0,0 C 94 % 1002,1 hPa 0,0 l/m 0 min 0 min 0 W/m 16,1 km/h (3 Bft) 100,00 %
28.01.2019 21:26 1,4 C 0,6 C 0,0 C 94 % 1002,1 hPa 0,0 l/m 0 min 0 min 0 W/m 9,7 km/h (2 Bft) 100,00 %
28.01.2019 21:28 1,4 C 0,6 C 0,0 C 94 % 1002,1 hPa 0,0 l/m 0 min 0 min 0 W/m 12,9 km/h (3 Bft) 97,87 %
28.01.2019 21:30 1,4 C 0,6 C 0,0 C 94 % 1002,1 hPa 0,0 l/m 0 min 0 min 0 W/m 12,9 km/h (3 Bft) 97,87 %
28.01.2019 21:32 1,4 C 0,6 C 0,0 C 94 % 1002,1 hPa 0,0 l/m 0 min 0 min 0 W/m 12,9 km/h (3 Bft) 97,83 %
28.01.2019 21:34 1,4 C 0,6 C 0,0 C 94 % 1002,2 hPa 0,0 l/m 0 min 0 min 0 W/m 12,9 km/h (3 Bft) 100,00 %
28.01.2019 21:36 1,3 C 0,6 C 0,0 C 94 % 1002,2 hPa 0,0 l/m 0 min 0 min 0 W/m 12,9 km/h (3 Bft) 100,00 %
28.01.2019 21:38 1,3 C 0,6 C 0,0 C 94 % 1002,2 hPa 0,0 l/m 0 min 0 min 0 W/m 16,1 km/h (3 Bft) 100,00 %
28.01.2019 21:40 1,3 C 0,6 C 0,0 C 94 % 1002,2 hPa 0,0 l/m 0 min 0 min 0 W/m 16,1 km/h (3 Bft) 97,87 %
28.01.2019 21:42 1,3 C 0,6 C 0,0 C 94 % 1002,2 hPa 0,0 l/m 0 min 0 min 0 W/m 12,9 km/h (3 Bft) 95,74 %
28.01.2019 21:44 1,3 C 0,6 C 0,0 C 94 % 1002,3 hPa 0,0 l/m 0 min 0 min 0 W/m 22,5 km/h (4 Bft) 100,00 %
28.01.2019 21:46 1,2 C 0,6 C 0,0 C 94 % 1002,3 hPa 0,0 l/m 0 min 0 min 0 W/m 12,9 km/h (3 Bft) 93,62 %
28.01.2019 21:48 1,2 C 0,6 C 0,0 C 94 % 1002,3 hPa 0,0 l/m 0 min 0 min 0 W/m 22,5 km/h (4 Bft) 93,62 %
28.01.2019 21:50 1,2 C 0,6 C 0,0 C 94 % 1002,2 hPa 0,0 l/m 0 min 0 min 0 W/m 9,7 km/h (2 Bft) 100,00 %
28.01.2019 21:52 1,2 C 0,6 C 0,0 C 94 % 1002,2 hPa 0,0 l/m 0 min 0 min 0 W/m 12,9 km/h (3 Bft) 97,87 %
28.01.2019 21:54 1,2 C 0,6 C 0,0 C 94 % 1002,2 hPa 0,0 l/m 0 min 0 min 0 W/m 12,9 km/h (3 Bft) 97,83 %
28.01.2019 21:56 1,2 C 0,0 C 0,0 C 94 % 1002,3 hPa 0,0 l/m 0 min 0 min 0 W/m 12,9 km/h (3 Bft) 97,87 %
28.01.2019 21:58 1,1 C 0,6 C 0,0 C 94 % 1002,3 hPa 0,0 l/m 0 min 0 min 0 W/m 19,3 km/h (3 Bft) 97,87 %
28.01.2019 22:00 1,1 C 0,6 C 0,0 C 94 % 1002,4 hPa 0,0 l/m 0 min 0 min 0 W/m 12,9 km/h (3 Bft) 97,87 %
28.01.2019 22:02 1,1 C 0,0 C 0,0 C 94 % 1002,4 hPa 0,0 l/m 0 min 0 min 0 W/m 16,1 km/h (3 Bft) 97,87 %
28.01.2019 22:04 1,1 C 0,0 C 0,0 C 94 % 1002,3 hPa 0,0 l/m 0 min 0 min 0 W/m 16,1 km/h (3 Bft) 95,74 %
28.01.2019 22:06 1,1 C 0,0 C 0,0 C 94 % 1002,5 hPa 0,0 l/m 0 min 0 min 0 W/m 19,3 km/h (3 Bft) 98,08 %
28.01.2019 22:08 1,1 C 0,0 C 0,0 C 94 % 1002,5 hPa 0,0 l/m 0 min 0 min 0 W/m 12,9 km/h (3 Bft) 97,56 %
28.01.2019 22:10 1,0 C 0,0 C 0,0 C 94 % 1002,5 hPa 0,0 l/m 0 min 0 min 0 W/m 9,7 km/h (2 Bft) 97,87 %
28.01.2019 22:12 1,0 C 0,6 C 0,0 C 94 % 1002,5 hPa 0,0 l/m 0 min 0 min 0 W/m 12,9 km/h (3 Bft) 97,87 %
28.01.2019 22:14 1,0 C 0,0 C 0,0 C 94 % 1002,5 hPa 0,0 l/m 0 min 0 min 0 W/m 6,4 km/h (2 Bft) 97,87 %
28.01.2019 22:16 1,0 C 0,0 C 0,0 C 94 % 1002,6 hPa 0,0 l/m 0 min 0 min 0 W/m 9,7 km/h (2 Bft) 97,87 %
28.01.2019 22:18 0,9 C 0,0 C 0,0 C 94 % 1002,5 hPa 0,0 l/m 0 min 0 min 0 W/m 16,1 km/h (3 Bft) 95,65 %
28.01.2019 22:20 0,9 C 0,0 C 0,0 C 94 % 1002,5 hPa 0,0 l/m 0 min 0 min 0 W/m 19,3 km/h (3 Bft) 97,87 %
28.01.2019 22:22 0,9 C 0,0 C 0,0 C 94 % 1002,6 hPa 0,0 l/m 0 min 0 min 0 W/m 12,9 km/h (3 Bft) 97,87 %
28.01.2019 22:24 0,9 C 0,0 C 0,0 C 94 % 1002,5 hPa 0,0 l/m 0 min 0 min 0 W/m 6,4 km/h (2 Bft) 95,74 %
28.01.2019 22:26 0,9 C 0,0 C 0,0 C 94 % 1002,7 hPa 0,0 l/m 0 min 0 min 0 W/m 12,9 km/h (3 Bft) 95,74 %
28.01.2019 22:28 0,9 C 0,0 C -0,6 C 95 % 1002,6 hPa 0,0 l/m 0 min 0 min 0 W/m 9,7 km/h (2 Bft) 97,87 %
28.01.2019 22:30 0,9 C 0,0 C -0,6 C 95 % 1002,7 hPa 0,0 l/m 0 min 0 min 0 W/m 12,9 km/h (3 Bft) 97,83 %
28.01.2019 22:32 0,8 C 0,0 C -0,6 C 95 % 1002,7 hPa 0,0 l/m 0 min 0 min 0 W/m 12,9 km/h (3 Bft) 96,30 %
28.01.2019 22:34 0,8 C 0,0 C 0,0 C 95 % 1002,7 hPa 0,0 l/m 0 min 0 min 0 W/m 12,9 km/h (3 Bft) 95,74 %
28.01.2019 22:36 0,8 C 0,0 C 0,0 C 95 % 1002,8 hPa 0,0 l/m 0 min 0 min 0 W/m 16,1 km/h (3 Bft) 95,74 %
28.01.2019 22:38 0,8 C 0,0 C 0,0 C 95 % 1002,8 hPa 0,0 l/m 0 min 0 min 0 W/m 6,4 km/h (2 Bft) 95,65 %
28.01.2019 22:40 0,8 C 0,6 C 0,0 C 95 % 1002,7 hPa 0,0 l/m 0 min 0 min 0 W/m 12,9 km/h (3 Bft) 97,87 %
28.01.2019 22:42 0,8 C 0,6 C 0,0 C 95 % 1002,8 hPa 0,0 l/m 0 min 0 min 0 W/m 6,4 km/h (2 Bft) 95,74 %
28.01.2019 22:44 0,8 C 0,6 C 0,0 C 95 % 1002,7 hPa 0,0 l/m 0 min 0 min 0 W/m 6,4 km/h (2 Bft) 97,87 %
28.01.2019 22:46 0,8 C 0,6 C 0,0 C 95 % 1002,8 hPa 0,0 l/m 0 min 0 min 0 W/m 9,7 km/h (2 Bft) 97,87 %
28.01.2019 22:48 0,9 C 0,6 C 0,0 C 95 % 1002,8 hPa 0,0 l/m 0 min 0 min 0 W/m 9,7 km/h (2 Bft) 95,74 %
28.01.2019 22:50 0,9 C 0,6 C 0,0 C 95 % 1002,8 hPa 0,0 l/m 0 min 0 min 0 W/m 9,7 km/h (2 Bft) 97,83 %
28.01.2019 22:52 0,9 C 0,6 C 0,0 C 95 % 1002,8 hPa 0,0 l/m 0 min 0 min 0 W/m 9,7 km/h (2 Bft) 95,74 %
28.01.2019 22:54 0,9 C 0,6 C 0,0 C 95 % 1002,9 hPa 0,0 l/m 0 min 0 min 0 W/m 12,9 km/h (3 Bft) 97,87 %
28.01.2019 22:56 0,9 C 0,6 C 0,0 C 95 % 1002,8 hPa 0,0 l/m 0 min 0 min 0 W/m 6,4 km/h (2 Bft) 97,87 %
28.01.2019 22:58 0,9 C 0,6 C 0,0 C 95 % 1002,8 hPa 0,0 l/m 0 min 0 min 0 W/m 12,9 km/h (3 Bft) 97,87 %
28.01.2019 23:00 0,9 C 0,6 C 0,0 C 95 % 1002,7 hPa 0,0 l/m 0 min 0 min 0 W/m 12,9 km/h (3 Bft) 97,87 %
28.01.2019 23:02 0,9 C 0,6 C 0,0 C 95 % 1002,8 hPa 0,0 l/m 0 min 0 min 0 W/m 9,7 km/h (2 Bft) 97,87 %
28.01.2019 23:04 0,9 C 0,6 C 0,0 C 95 % 1002,8 hPa 0,0 l/m 0 min 0 min 0 W/m 9,7 km/h (2 Bft) 97,87 %
28.01.2019 23:06 0,9 C 0,6 C 0,0 C 95 % 1002,9 hPa 0,0 l/m 0 min 0 min 0 W/m 9,7 km/h (2 Bft) 95,74 %
28.01.2019 23:08 0,9 C 0,6 C 0,0 C 95 % 1002,9 hPa 0,0 l/m 0 min 0 min 0 W/m 9,7 km/h (2 Bft) 97,92 %
28.01.2019 23:10 0,9 C 0,6 C 0,0 C 95 % 1002,9 hPa 0,0 l/m 0 min 0 min 0 W/m 16,1 km/h (3 Bft) 97,87 %
28.01.2019 23:12 0,9 C 0,6 C 0,0 C 95 % 1002,9 hPa 0,0 l/m 0 min 0 min 0 W/m 9,7 km/h (2 Bft) 97,83 %
28.01.2019 23:14 0,9 C 0,6 C 0,0 C 95 % 1002,9 hPa 0,0 l/m 0 min 0 min 0 W/m 9,7 km/h (2 Bft) 95,74 %
28.01.2019 23:16 0,9 C 0,6 C 0,0 C 95 % 1002,9 hPa 0,0 l/m 0 min 0 min 0 W/m 6,4 km/h (2 Bft) 95,74 %
28.01.2019 23:18 1,0 C 0,6 C 0,0 C 95 % 1003,0 hPa 0,0 l/m 0 min 0 min 0 W/m 9,7 km/h (2 Bft) 97,87 %
28.01.2019 23:20 1,0 C 0,6 C 0,0 C 95 % 1003,0 hPa 0,0 l/m 0 min 0 min 0 W/m 9,7 km/h (2 Bft) 100,00 %
28.01.2019 23:22 1,0 C 0,6 C 0,0 C 95 % 1003,1 hPa 0,0 l/m 0 min 2 min 0 W/m 9,7 km/h (2 Bft) 97,87 %
28.01.2019 23:24 1,0 C 0,6 C 0,0 C 95 % 1003,1 hPa 0,0 l/m 0 min 2 min 0 W/m 16,1 km/h (3 Bft) 97,87 %
28.01.2019 23:26 1,1 C 0,6 C 0,0 C 95 % 1003,3 hPa 0,0 l/m 0 min 2 min 0 W/m 16,1 km/h (3 Bft) 97,83 %
28.01.2019 23:28 1,1 C 0,6 C 0,0 C 95 % 1003,1 hPa 0,2 l/m 0 min 2 min 0 W/m 9,7 km/h (2 Bft) 97,87 %
28.01.2019 23:30 1,1 C 0,6 C 0,0 C 95 % 1003,2 hPa 0,0 l/m 0 min 2 min 0 W/m 16,1 km/h (3 Bft) 97,87 %
28.01.2019 23:32 1,1 C 0,6 C 0,0 C 95 % 1003,2 hPa 0,0 l/m 0 min 2 min 0 W/m 12,9 km/h (3 Bft) 97,87 %
28.01.2019 23:34 1,1 C 0,0 C 0,0 C 96 % 1003,2 hPa 0,0 l/m 0 min 2 min 0 W/m 9,7 km/h (2 Bft) 97,87 %
28.01.2019 23:36 1,1 C 0,0 C -0,6 C 96 % 1003,2 hPa 0,0 l/m 0 min 0 min 0 W/m 9,7 km/h (2 Bft) 97,87 %
28.01.2019 23:38 1,1 C 0,0 C -0,6 C 96 % 1003,2 hPa 0,0 l/m 0 min 2 min 0 W/m 6,4 km/h (2 Bft) 97,83 %
28.01.2019 23:40 1,1 C 0,0 C -0,6 C 96 % 1003,2 hPa 0,0 l/m 0 min 0 min 0 W/m 6,4 km/h (2 Bft) 93,62 %
28.01.2019 23:42 1,0 C 0,0 C -0,6 C 95 % 1003,3 hPa 0,0 l/m 0 min 2 min 0 W/m 12,9 km/h (3 Bft) 97,87 %
28.01.2019 23:44 1,0 C 0,0 C -0,6 C 95 % 1003,2 hPa 0,0 l/m 0 min 2 min 0 W/m 12,9 km/h (3 Bft) 97,87 %
28.01.2019 23:46 1,0 C 0,0 C -0,6 C 95 % 1003,3 hPa 0,0 l/m 0 min 0 min 0 W/m 6,4 km/h (2 Bft) 97,87 %
28.01.2019 23:48 1,0 C 0,0 C -0,6 C 95 % 1003,3 hPa 0,0 l/m 0 min 0 min 0 W/m 6,4 km/h (2 Bft) 97,83 %
28.01.2019 23:50 0,9 C 0,0 C -0,6 C 95 % 1003,3 hPa 0,0 l/m 0 min 2 min 0 W/m 6,4 km/h (2 Bft) 97,87 %
28.01.2019 23:52 0,9 C 0,0 C -0,6 C 95 % 1003,3 hPa 0,0 l/m 0 min 0 min 0 W/m 6,4 km/h (2 Bft) 97,87 %
28.01.2019 23:54 0,9 C 0,0 C -0,6 C 95 % 1003,3 hPa 0,0 l/m 0 min 0 min 0 W/m 9,7 km/h (2 Bft) 97,87 %
28.01.2019 23:56 0,9 C 0,0 C -0,6 C 95 % 1003,4 hPa 0,0 l/m 0 min 2 min 0 W/m 9,7 km/h (2 Bft) 97,87 %
28.01.2019 23:58 0,9 C 0,0 C -0,6 C 95 % 1003,5 hPa 0,0 l/m 0 min 0 min 0 W/m 12,9 km/h (3 Bft) 97,87 %
_ Min-Zeit 22:32 21:56 22:28 17:12 04:12 - - - - 07:48 19:58
Minimum _ 0,8 C 0,0 C -0,6 C 84 % 985,8 hPa - - - - 6,4 km/h (2 Bft) 69,57 %
_ Max-Zeit 10:26 10:18 10:18 08:40 23:58 01:48 16:16 04:05 14:14 13:30 00:08
Maximum _ 4,1 C 3,9 C 3,3 C 98 % 1003,5 hPa 0,2 l/m 2 min 5 min 146 W/m 61,2 km/h
N-NW (7 Bft)
100,00 %
Durchschnitt _ 2,7 C 1,9 C 1,3 C 95 % 992,7 hPa #5,6 l/m #42 min. #14:32 h 53 W/m 22,1 km/h (4 Bft) 96,81 %
© 2019 W. Hausmann